Time,TemperatureF,DewpointF,PressureIn,WindDirection,WindDirectionDegrees,WindSpeedMPH,WindSpeedGustMPH,Humidity,HourlyPrecipIn,Conditions,Clouds,dailyrainin,SoftwareType,DateUTC
2013-04-25 00:00:00,57.8,41.7,29.94,West,281,5.0,5.0,55,0.00,,,0.00,Wunderground v.1.15,2013-04-25 04:00:00,
2013-04-25 00:01:00,57.8,41.7,29.94,West,280,5.0,5.0,55,0.00,,,0.00,Wunderground v.1.15,2013-04-25 04:01:00,
2013-04-25 00:02:00,57.8,41.7,29.95,NW,312,5.0,5.0,55,0.00,,,0.00,Wunderground v.1.15,2013-04-25 04:02:00,
2013-04-25 00:04:00,57.6,41.5,29.95,SSW,210,4.0,5.0,55,0.00,,,0.00,Wunderground v.1.15,2013-04-25 04:04:00,
2013-04-25 00:08:00,57.5,41.9,29.95,SW,217,4.0,7.0,56,0.00,,,0.00,Wunderground v.1.15,2013-04-25 04:08:00,
2013-04-25 00:09:00,57.3,42.2,29.95,West,277,4.0,7.0,57,0.00,,,0.00,Wunderground v.1.15,2013-04-25 04:09:00,
2013-04-25 00:10:00,57.3,41.3,29.95,West,281,4.0,4.0,55,0.00,,,0.00,Wunderground v.1.15,2013-04-25 04:10:00,
2013-04-25 00:11:00,57.3,41.3,29.95,West,263,4.0,7.0,55,0.00,,,0.00,Wunderground v.1.15,2013-04-25 04:11:00,
2013-04-25 00:14:00,57.2,42.1,29.95,West,278,4.0,7.0,57,0.00,,,0.00,Wunderground v.1.15,2013-04-25 04:14:00,
2013-04-25 00:15:00,57.0,41.9,29.95,WNW,295,4.0,7.0,57,0.00,,,0.00,Wunderground v.1.15,2013-04-25 04:15:00,
2013-04-25 00:16:00,57.0,41.9,29.95,NNW,338,4.0,7.0,57,0.00,,,0.00,Wunderground v.1.15,2013-04-25 04:16:00,
2013-04-25 00:17:00,56.9,41.8,29.95,West,279,4.0,7.0,57,0.00,,,0.00,Wunderground v.1.15,2013-04-25 04:17:00,
2013-04-25 00:19:00,56.7,41.6,29.95,West,280,4.0,7.0,57,0.00,,,0.00,Wunderground v.1.15,2013-04-25 04:19:00,
2013-04-25 00:21:00,56.6,41.5,29.95,NW,304,4.0,7.0,57,0.00,,,0.00,Wunderground v.1.15,2013-04-25 04:21:00,
2013-04-25 00:22:00,56.5,41.0,29.95,NW,309,5.0,7.0,56,0.00,,,0.00,Wunderground v.1.15,2013-04-25 04:22:00,
2013-04-25 00:24:00,56.3,40.8,29.95,West,271,5.0,7.0,56,0.00,,,0.00,Wunderground v.1.15,2013-04-25 04:24:00,
2013-04-25 00:25:00,56.2,40.7,29.95,WSW,248,5.0,7.0,56,0.00,,,0.00,Wunderground v.1.15,2013-04-25 04:25:00,
2013-04-25 00:27:00,56.0,41.0,29.95,WNW,296,6.0,8.0,57,0.00,,,0.00,Wunderground v.1.15,2013-04-25 04:27:00,
2013-04-25 00:28:00,55.9,40.9,29.95,West,275,6.0,8.0,57,0.00,,,0.00,Wunderground v.1.15,2013-04-25 04:28:00,
2013-04-25 00:29:00,55.9,40.4,29.95,West,280,6.0,8.0,56,0.00,,,0.00,Wunderground v.1.15,2013-04-25 04:29:00,
2013-04-25 00:32:00,55.7,40.7,29.95,WNW,290,6.0,8.0,57,0.00,,,0.00,Wunderground v.1.15,2013-04-25 04:32:00,
2013-04-25 00:33:00,55.6,40.6,29.95,WNW,289,6.0,8.0,57,0.00,,,0.00,Wunderground v.1.15,2013-04-25 04:33:00,
2013-04-25 00:35:00,55.4,40.9,29.95,WNW,286,7.0,8.0,58,0.00,,,0.00,Wunderground v.1.15,2013-04-25 04:35:00,
2013-04-25 00:38:00,55.3,40.8,29.95,WSW,252,7.0,8.0,58,0.00,,,0.00,Wunderground v.1.15,2013-04-25 04:38:00,
2013-04-25 00:39:00,55.3,40.8,29.95,WNW,282,7.0,8.0,58,0.00,,,0.00,Wunderground v.1.15,2013-04-25 04:39:00,
2013-04-25 00:43:00,55.0,40.5,29.95,West,281,6.0,6.0,58,0.00,,,0.00,Wunderground v.1.15,2013-04-25 04:43:00,
2013-04-25 00:44:00,55.0,40.5,29.95,WSW,246,6.0,7.0,58,0.00,,,0.00,Wunderground v.1.15,2013-04-25 04:44:00,
2013-04-25 00:45:00,54.8,40.3,29.95,WSW,247,6.0,7.0,58,0.00,,,0.00,Wunderground v.1.15,2013-04-25 04:45:00,
2013-04-25 00:50:00,54.5,39.6,29.97,WNW,297,6.0,6.0,57,0.00,,,0.00,Wunderground v.1.15,2013-04-25 04:50:00,
2013-04-25 00:51:00,54.5,39.6,29.97,WNW,282,6.0,6.0,57,0.00,,,0.00,Wunderground v.1.15,2013-04-25 04:51:00,
2013-04-25 00:54:00,54.4,39.9,29.97,WNW,293,6.0,6.0,58,0.00,,,0.00,Wunderground v.1.15,2013-04-25 04:54:00,
2013-04-25 00:57:00,54.2,39.7,29.97,WNW,290,6.0,9.0,58,0.00,,,0.00,Wunderground v.1.15,2013-04-25 04:57:00,
2013-04-25 00:59:00,54.2,40.2,29.97,West,276,5.0,9.0,59,0.00,,,0.00,Wunderground v.1.15,2013-04-25 04:59:00,
2013-04-25 01:00:00,54.1,39.6,29.97,West,268,5.0,5.0,58,0.00,,,0.00,Wunderground v.1.15,2013-04-25 05:00:00,
2013-04-25 01:01:00,54.1,39.6,29.97,WNW,283,5.0,5.0,58,0.00,,,0.00,Wunderground v.1.15,2013-04-25 05:01:00,
2013-04-25 01:03:00,53.9,39.5,29.97,West,265,5.0,5.0,58,0.00,,,0.00,Wunderground v.1.15,2013-04-25 05:03:00,
2013-04-25 01:04:00,53.9,39.5,29.97,NW,307,5.0,7.0,58,0.00,,,0.00,Wunderground v.1.15,2013-04-25 05:04:00,
2013-04-25 01:06:00,53.6,39.2,29.97,WNW,292,5.0,7.0,58,0.00,,,0.00,Wunderground v.1.15,2013-04-25 05:06:00,
2013-04-25 01:07:00,53.6,39.2,29.97,WNW,290,5.0,7.0,58,0.00,,,0.00,Wunderground v.1.15,2013-04-25 05:07:00,
2013-04-25 01:09:00,53.5,38.6,29.97,WNW,290,5.0,7.0,57,0.00,,,0.00,Wunderground v.1.15,2013-04-25 05:09:00,
2013-04-25 01:13:00,53.1,37.8,29.97,WNW,292,6.0,7.0,56,0.00,,,0.00,Wunderground v.1.15,2013-04-25 05:13:00,
2013-04-25 01:14:00,52.9,37.6,29.97,WSW,255,6.0,7.0,56,0.00,,,0.00,Wunderground v.1.15,2013-04-25 05:14:00,
2013-04-25 01:15:00,52.9,37.6,29.97,WNW,294,5.0,7.0,56,0.00,,,0.00,Wunderground v.1.15,2013-04-25 05:15:00,
2013-04-25 01:16:00,52.8,37.5,29.97,WNW,293,5.0,7.0,56,0.00,,,0.00,Wunderground v.1.15,2013-04-25 05:16:00,
2013-04-25 01:21:00,52.5,37.2,29.99,NW,306,5.0,5.0,56,0.00,,,0.00,Wunderground v.1.15,2013-04-25 05:21:00,
2013-04-25 01:22:00,52.5,37.7,29.99,NE,54,5.0,6.0,57,0.00,,,0.00,Wunderground v.1.15,2013-04-25 05:22:00,
2013-04-25 01:23:00,52.3,37.1,29.99,NE,48,4.0,6.0,56,0.00,,,0.00,Wunderground v.1.15,2013-04-25 05:23:00,
2013-04-25 01:25:00,52.2,37.0,29.99,NE,39,4.0,7.0,56,0.00,,,0.00,Wunderground v.1.15,2013-04-25 05:25:00,
2013-04-25 01:28:00,52.0,37.2,29.99,West,267,4.0,7.0,57,0.00,,,0.00,Wunderground v.1.15,2013-04-25 05:28:00,
2013-04-25 01:30:00,51.9,37.1,29.99,WNW,301,3.0,3.0,57,0.00,,,0.00,Wunderground v.1.15,2013-04-25 05:30:00,
2013-04-25 01:31:00,51.7,36.9,29.99,NW,305,3.0,3.0,57,0.00,,,0.00,Wunderground v.1.15,2013-04-25 05:31:00,
2013-04-25 01:33:00,51.6,37.3,29.99,North,360,3.0,3.0,58,0.00,,,0.00,Wunderground v.1.15,2013-04-25 05:33:00,
2013-04-25 01:37:00,51.4,37.1,29.99,NE,40,3.0,4.0,58,0.00,,,0.00,Wunderground v.1.15,2013-04-25 05:37:00,
2013-04-25 01:40:00,51.1,36.8,29.99,West,267,2.0,2.0,58,0.00,,,0.00,Wunderground v.1.15,2013-04-25 05:40:00,
2013-04-25 01:42:00,51.0,36.7,29.99,West,267,2.0,2.0,58,0.00,,,0.00,Wunderground v.1.15,2013-04-25 05:42:00,
2013-04-25 01:43:00,51.0,36.7,29.99,West,267,1.0,2.0,58,0.00,,,0.00,Wunderground v.1.15,2013-04-25 05:43:00,
2013-04-25 01:44:00,50.8,36.5,29.99,West,267,1.0,2.0,58,0.00,,,0.00,Wunderground v.1.15,2013-04-25 05:44:00,
2013-04-25 01:47:00,50.7,36.5,30.00,WNW,284,1.0,4.0,58,0.00,,,0.00,Wunderground v.1.15,2013-04-25 05:47:00,
2013-04-25 01:50:00,50.4,36.6,30.00,WNW,300,1.0,2.0,59,0.00,,,0.00,Wunderground v.1.15,2013-04-25 05:50:00,
2013-04-25 01:52:00,50.4,36.6,30.00,WNW,300,1.0,2.0,59,0.00,,,0.00,Wunderground v.1.15,2013-04-25 05:52:00,
2013-04-25 01:53:00,50.2,36.4,30.00,West,273,1.0,3.0,59,0.00,,,0.00,Wunderground v.1.15,2013-04-25 05:53:00,
2013-04-25 01:55:00,50.1,36.3,30.00,West,265,2.0,3.0,59,0.00,,,0.00,Wunderground v.1.15,2013-04-25 05:55:00,
2013-04-25 01:56:00,50.1,35.9,30.00,NW,312,2.0,3.0,58,0.00,,,0.00,Wunderground v.1.15,2013-04-25 05:56:00,
2013-04-25 01:59:00,49.8,36.0,30.00,WNW,293,3.0,6.0,59,0.00,,,0.00,Wunderground v.1.15,2013-04-25 05:59:00,
2013-04-25 02:01:00,49.6,35.4,30.00,WNW,286,3.0,5.0,58,0.00,,,0.00,Wunderground v.1.15,2013-04-25 06:01:00,
2013-04-25 02:03:00,49.6,35.4,30.00,West,281,4.0,7.0,58,0.00,,,0.00,Wunderground v.1.15,2013-04-25 06:03:00,
2013-04-25 02:07:00,49.4,35.2,30.00,WNW,284,4.0,7.0,58,0.00,,,0.00,Wunderground v.1.15,2013-04-25 06:07:00,
2013-04-25 02:08:00,49.4,35.2,30.00,West,278,4.0,7.0,58,0.00,,,0.00,Wunderground v.1.15,2013-04-25 06:08:00,
2013-04-25 02:09:00,49.4,35.2,30.00,West,273,4.0,7.0,58,0.00,,,0.00,Wunderground v.1.15,2013-04-25 06:09:00,
2013-04-25 02:12:00,49.2,35.5,30.00,West,274,4.0,4.0,59,0.00,,,0.00,Wunderground v.1.15,2013-04-25 06:12:00,
2013-04-25 02:13:00,49.1,35.4,30.00,WNW,298,3.0,4.0,59,0.00,,,0.00,Wunderground v.1.15,2013-04-25 06:13:00,
2013-04-25 02:16:00,48.8,35.5,30.01,West,280,3.0,8.0,60,0.00,,,0.00,Wunderground v.1.15,2013-04-25 06:16:00,
2013-04-25 02:17:00,48.8,35.5,30.01,West,273,3.0,8.0,60,0.00,,,0.00,Wunderground v.1.15,2013-04-25 06:17:00,
2013-04-25 02:22:00,48.5,35.2,30.01,West,273,3.0,6.0,60,0.00,,,0.00,Wunderground v.1.15,2013-04-25 06:22:00,
2013-04-25 02:23:00,48.3,35.0,30.01,WNW,295,4.0,7.0,60,0.00,,,0.00,Wunderground v.1.15,2013-04-25 06:23:00,
2013-04-25 02:24:00,48.3,34.6,30.01,WNW,288,4.0,7.0,59,0.00,,,0.00,Wunderground v.1.15,2013-04-25 06:24:00,
2013-04-25 02:27:00,48.2,34.5,30.01,WNW,282,4.0,7.0,59,0.00,,,0.00,Wunderground v.1.15,2013-04-25 06:27:00,
2013-04-25 02:29:00,48.2,34.5,30.01,WNW,299,5.0,7.0,59,0.00,,,0.00,Wunderground v.1.15,2013-04-25 06:29:00,
2013-04-25 02:30:00,48.2,34.5,30.01,West,270,5.0,5.0,59,0.00,,,0.00,Wunderground v.1.15,2013-04-25 06:30:00,
2013-04-25 02:34:00,48.0,34.8,30.01,West,267,5.0,7.0,60,0.00,,,0.00,Wunderground v.1.15,2013-04-25 06:34:00,
2013-04-25 02:36:00,47.9,34.7,30.01,WNW,298,5.0,7.0,60,0.00,,,0.00,Wunderground v.1.15,2013-04-25 06:36:00,
2013-04-25 02:37:00,47.9,34.3,30.01,WNW,287,5.0,7.0,59,0.00,,,0.00,Wunderground v.1.15,2013-04-25 06:37:00,
2013-04-25 02:39:00,47.7,34.5,30.01,West,271,5.0,7.0,60,0.00,,,0.00,Wunderground v.1.15,2013-04-25 06:39:00,
2013-04-25 02:41:00,47.6,34.4,30.01,NW,314,5.0,5.0,60,0.00,,,0.00,Wunderground v.1.15,2013-04-25 06:41:00,
2013-04-25 02:42:00,47.6,34.4,30.01,WNW,289,5.0,7.0,60,0.00,,,0.00,Wunderground v.1.15,2013-04-25 06:42:00,
2013-04-25 02:44:00,47.4,33.8,30.01,WNW,292,5.0,11.0,59,0.00,,,0.00,Wunderground v.1.15,2013-04-25 06:44:00,
2013-04-25 02:46:00,47.4,33.8,30.01,NW,309,6.0,11.0,59,0.00,,,0.00,Wunderground v.1.15,2013-04-25 06:46:00,
2013-04-25 02:47:00,47.4,33.8,30.02,West,275,6.0,11.0,59,0.00,,,0.00,Wunderground v.1.15,2013-04-25 06:47:00,
2013-04-25 02:48:00,47.3,33.7,30.02,WNW,298,6.0,11.0,59,0.00,,,0.00,Wunderground v.1.15,2013-04-25 06:48:00,
2013-04-25 02:49:00,47.3,33.7,30.02,WNW,301,6.0,11.0,59,0.00,,,0.00,Wunderground v.1.15,2013-04-25 06:49:00,
2013-04-25 02:52:00,47.1,33.5,30.02,WNW,288,6.0,8.0,59,0.00,,,0.00,Wunderground v.1.15,2013-04-25 06:52:00,
2013-04-25 02:53:00,47.1,33.5,30.02,WNW,288,5.0,8.0,59,0.00,,,0.00,Wunderground v.1.15,2013-04-25 06:53:00,
2013-04-25 02:54:00,47.0,33.4,30.02,WNW,288,5.0,8.0,59,0.00,,,0.00,Wunderground v.1.15,2013-04-25 06:54:00,
2013-04-25 02:55:00,47.0,33.4,30.02,WNW,284,5.0,8.0,59,0.00,,,0.00,Wunderground v.1.15,2013-04-25 06:55:00,
2013-04-25 02:59:00,46.8,33.2,30.02,WNW,295,4.0,8.0,59,0.00,,,0.00,Wunderground v.1.15,2013-04-25 06:59:00,
2013-04-25 03:00:00,46.8,33.6,30.02,WNW,292,4.0,4.0,60,0.00,,,0.00,Wunderground v.1.15,2013-04-25 07:00:00,
2013-04-25 03:02:00,46.7,33.5,30.03,WNW,283,3.0,4.0,60,0.00,,,0.00,Wunderground v.1.15,2013-04-25 07:02:00,
2013-04-25 03:04:00,46.5,33.4,30.03,WNW,283,3.0,4.0,60,0.00,,,0.00,Wunderground v.1.15,2013-04-25 07:04:00,
2013-04-25 03:05:00,46.4,33.3,30.03,WNW,284,3.0,6.0,60,0.00,,,0.00,Wunderground v.1.15,2013-04-25 07:05:00,
2013-04-25 03:07:00,46.4,33.3,30.03,WNW,282,3.0,6.0,60,0.00,,,0.00,Wunderground v.1.15,2013-04-25 07:07:00,
2013-04-25 03:11:00,46.2,33.1,30.03,West,269,3.0,4.0,60,0.00,,,0.00,Wunderground v.1.15,2013-04-25 07:11:00,
2013-04-25 03:12:00,46.1,33.0,30.03,North,360,3.0,4.0,60,0.00,,,0.00,Wunderground v.1.15,2013-04-25 07:12:00,
2013-04-25 03:15:00,46.0,32.9,30.03,West,281,4.0,5.0,60,0.00,,,0.00,Wunderground v.1.15,2013-04-25 07:15:00,
2013-04-25 03:16:00,46.0,32.9,30.03,West,281,4.0,6.0,60,0.00,,,0.00,Wunderground v.1.15,2013-04-25 07:16:00,
2013-04-25 03:18:00,46.0,33.3,30.04,WNW,300,4.0,8.0,61,0.00,,,0.00,Wunderground v.1.15,2013-04-25 07:18:00,
2013-04-25 03:20:00,45.8,32.7,30.04,West,265,5.0,5.0,60,0.00,,,0.00,Wunderground v.1.15,2013-04-25 07:20:00,
2013-04-25 03:21:00,45.8,32.7,30.04,WNW,300,5.0,5.0,60,0.00,,,0.00,Wunderground v.1.15,2013-04-25 07:21:00,
2013-04-25 03:23:00,45.8,33.1,30.04,West,274,6.0,8.0,61,0.00,,,0.00,Wunderground v.1.15,2013-04-25 07:23:00,
2013-04-25 03:26:00,45.7,33.0,30.04,WNW,290,6.0,8.0,61,0.00,,,0.00,Wunderground v.1.15,2013-04-25 07:26:00,
2013-04-25 03:27:00,45.5,32.8,30.04,WNW,295,6.0,8.0,61,0.00,,,0.00,Wunderground v.1.15,2013-04-25 07:27:00,
2013-04-25 03:29:00,45.5,32.8,30.04,WNW,295,6.0,8.0,61,0.00,,,0.00,Wunderground v.1.15,2013-04-25 07:29:00,
2013-04-25 03:33:00,45.4,32.7,30.05,WSW,241,6.0,10.0,61,0.00,,,0.00,Wunderground v.1.15,2013-04-25 07:33:00,
2013-04-25 03:36:00,45.2,32.5,30.05,West,276,6.0,10.0,61,0.00,,,0.00,Wunderground v.1.15,2013-04-25 07:36:00,
2013-04-25 03:38:00,45.2,32.1,30.05,WNW,295,6.0,10.0,60,0.00,,,0.00,Wunderground v.1.15,2013-04-25 07:38:00,
2013-04-25 03:39:00,45.1,32.4,30.05,West,271,6.0,10.0,61,0.00,,,0.00,Wunderground v.1.15,2013-04-25 07:39:00,
2013-04-25 03:42:00,44.9,31.8,30.05,WNW,282,6.0,6.0,60,0.00,,,0.00,Wunderground v.1.15,2013-04-25 07:42:00,
2013-04-25 03:45:00,44.8,32.2,30.05,West,263,5.0,7.0,61,0.00,,,0.00,Wunderground v.1.15,2013-04-25 07:45:00,
2013-04-25 03:48:00,44.6,31.6,30.06,WNW,288,5.0,7.0,60,0.00,,,0.00,Wunderground v.1.15,2013-04-25 07:48:00,
2013-04-25 03:50:00,44.5,31.5,30.06,West,275,5.0,6.0,60,0.00,,,0.00,Wunderground v.1.15,2013-04-25 07:50:00,
2013-04-25 03:51:00,44.5,31.5,30.06,WSW,248,5.0,6.0,60,0.00,,,0.00,Wunderground v.1.15,2013-04-25 07:51:00,
2013-04-25 03:54:00,44.3,31.3,30.06,NW,307,5.0,6.0,60,0.00,,,0.00,Wunderground v.1.15,2013-04-25 07:54:00,
2013-04-25 03:55:00,44.3,31.7,30.06,SW,226,5.0,6.0,61,0.00,,,0.00,Wunderground v.1.15,2013-04-25 07:55:00,
2013-04-25 03:57:00,44.2,31.6,30.06,WNW,293,5.0,6.0,61,0.00,,,0.00,Wunderground v.1.15,2013-04-25 07:57:00,
2013-04-25 03:59:00,44.1,31.5,30.06,WNW,292,4.0,6.0,61,0.00,,,0.00,Wunderground v.1.15,2013-04-25 07:59:00,
2013-04-25 04:00:00,44.1,31.5,30.06,WNW,287,4.0,4.0,61,0.00,,,0.00,Wunderground v.1.15,2013-04-25 08:00:00,
2013-04-25 04:04:00,43.9,31.3,30.07,WNW,294,3.0,4.0,61,0.00,,,0.00,Wunderground v.1.15,2013-04-25 08:04:00,
2013-04-25 04:06:00,43.8,31.2,30.07,WSW,257,2.0,4.0,61,0.00,,,0.00,Wunderground v.1.15,2013-04-25 08:06:00,
2013-04-25 04:07:00,43.8,31.2,30.07,WSW,257,2.0,4.0,61,0.00,,,0.00,Wunderground v.1.15,2013-04-25 08:07:00,
2013-04-25 04:09:00,43.6,31.0,30.07,NW,309,2.0,4.0,61,0.00,,,0.00,Wunderground v.1.15,2013-04-25 08:09:00,
2013-04-25 04:11:00,43.6,31.0,30.07,NW,308,2.0,3.0,61,0.00,,,0.00,Wunderground v.1.15,2013-04-25 08:11:00,
2013-04-25 04:12:00,43.6,31.0,30.07,NW,308,2.0,3.0,61,0.00,,,0.00,Wunderground v.1.15,2013-04-25 08:12:00,
2013-04-25 04:15:00,43.5,30.9,30.07,NW,307,2.0,3.0,61,0.00,,,0.00,Wunderground v.1.15,2013-04-25 08:15:00,
2013-04-25 04:17:00,43.5,31.3,30.07,NW,307,2.0,3.0,62,0.00,,,0.00,Wunderground v.1.15,2013-04-25 08:17:00,
2013-04-25 04:18:00,43.5,31.3,30.07,NW,307,2.0,3.0,62,0.00,,,0.00,Wunderground v.1.15,2013-04-25 08:18:00,
2013-04-25 04:19:00,43.3,31.1,30.07,NW,305,1.0,3.0,62,0.00,,,0.00,Wunderground v.1.15,2013-04-25 08:19:00,
2013-04-25 04:22:00,43.2,31.1,30.07,WNW,286,1.0,2.0,62,0.00,,,0.00,Wunderground v.1.15,2013-04-25 08:22:00,
2013-04-25 04:27:00,43.1,31.0,30.07,WNW,286,1.0,2.0,62,0.00,,,0.00,Wunderground v.1.15,2013-04-25 08:27:00,
2013-04-25 04:28:00,43.1,31.0,30.07,WNW,286,1.0,2.0,62,0.00,,,0.00,Wunderground v.1.15,2013-04-25 08:28:00,
2013-04-25 04:31:00,42.9,30.8,30.07,WNW,286,0.0,1.0,62,0.00,,,0.00,Wunderground v.1.15,2013-04-25 08:31:00,
2013-04-25 04:32:00,42.9,30.8,30.08,WNW,286,0.0,1.0,62,0.00,,,0.00,Wunderground v.1.15,2013-04-25 08:32:00,
2013-04-25 04:33:00,42.9,30.8,30.08,WNW,286,0.0,1.0,62,0.00,,,0.00,Wunderground v.1.15,2013-04-25 08:33:00,
2013-04-25 04:35:00,42.8,30.7,30.08,WNW,286,0.0,1.0,62,0.00,,,0.00,Wunderground v.1.15,2013-04-25 08:35:00,
2013-04-25 04:37:00,42.8,30.7,30.08,WNW,286,0.0,1.0,62,0.00,,,0.00,Wunderground v.1.15,2013-04-25 08:37:00,
2013-04-25 04:38:00,42.8,30.7,30.08,NW,308,0.0,5.0,62,0.00,,,0.00,Wunderground v.1.15,2013-04-25 08:38:00,
2013-04-25 04:41:00,42.6,30.5,30.08,NW,308,0.0,0.0,62,0.00,,,0.00,Wunderground v.1.15,2013-04-25 08:41:00,
2013-04-25 04:42:00,42.6,30.5,30.08,NW,308,0.0,0.0,62,0.00,,,0.00,Wunderground v.1.15,2013-04-25 08:42:00,
2013-04-25 04:44:00,42.6,30.5,30.08,NW,308,0.0,0.0,62,0.00,,,0.00,Wunderground v.1.15,2013-04-25 08:44:00,
2013-04-25 04:49:00,42.5,30.4,30.10,NW,308,0.0,0.0,62,0.00,,,0.00,Wunderground v.1.15,2013-04-25 08:49:00,
2013-04-25 04:51:00,42.3,30.6,30.10,NW,308,0.0,0.0,63,0.00,,,0.00,Wunderground v.1.15,2013-04-25 08:51:00,
2013-04-25 04:52:00,42.3,30.6,30.10,NW,308,0.0,0.0,63,0.00,,,0.00,Wunderground v.1.15,2013-04-25 08:52:00,
2013-04-25 04:54:00,42.2,30.5,30.10,NW,308,0.0,0.0,63,0.00,,,0.00,Wunderground v.1.15,2013-04-25 08:54:00,
2013-04-25 04:58:00,41.9,30.2,30.10,NW,308,0.0,1.0,63,0.00,,,0.00,Wunderground v.1.15,2013-04-25 08:58:00,
2013-04-25 04:59:00,41.9,30.2,30.10,NW,308,0.0,1.0,63,0.00,,,0.00,Wunderground v.1.15,2013-04-25 08:59:00,
2013-04-25 05:00:00,41.9,30.2,30.10,NW,308,0.0,0.0,63,0.00,,,0.00,Wunderground v.1.15,2013-04-25 09:00:00,
2013-04-25 05:01:00,41.9,30.6,30.10,NW,308,0.0,0.0,64,0.00,,,0.00,Wunderground v.1.15,2013-04-25 09:01:00,
2013-04-25 05:04:00,41.9,30.2,30.11,NW,308,0.0,1.0,63,0.00,,,0.00,Wunderground v.1.15,2013-04-25 09:04:00,
2013-04-25 05:06:00,41.8,30.5,30.11,NW,308,0.0,1.0,64,0.00,,,0.00,Wunderground v.1.15,2013-04-25 09:06:00,
2013-04-25 05:09:00,41.8,30.1,30.11,NW,308,0.0,1.0,63,0.00,,,0.00,Wunderground v.1.15,2013-04-25 09:09:00,
2013-04-25 05:10:00,41.8,30.1,30.11,NW,308,0.0,0.0,63,0.00,,,0.00,Wunderground v.1.15,2013-04-25 09:10:00,
2013-04-25 05:13:00,41.6,30.7,30.11,NW,308,0.0,1.0,65,0.00,,,0.00,Wunderground v.1.15,2013-04-25 09:13:00,
2013-04-25 05:15:00,41.3,30.4,30.11,NW,308,0.0,1.0,65,0.00,,,0.00,Wunderground v.1.15,2013-04-25 09:15:00,
2013-04-25 05:17:00,41.2,30.3,30.11,NW,308,0.0,1.0,65,0.00,,,0.00,Wunderground v.1.15,2013-04-25 09:17:00,
2013-04-25 05:18:00,41.2,30.3,30.11,NW,308,0.0,1.0,65,0.00,,,0.00,Wunderground v.1.15,2013-04-25 09:18:00,
2013-04-25 05:22:00,40.9,30.0,30.11,NW,308,0.0,0.0,65,0.00,,,0.00,Wunderground v.1.15,2013-04-25 09:22:00,
2013-04-25 05:23:00,40.9,30.4,30.11,NW,308,0.0,0.0,66,0.00,,,0.00,Wunderground v.1.15,2013-04-25 09:23:00,
2013-04-25 05:25:00,40.8,30.3,30.11,NW,307,0.0,0.0,66,0.00,,,0.00,Wunderground v.1.15,2013-04-25 09:25:00,
2013-04-25 05:26:00,40.8,30.3,30.11,NW,307,0.0,0.0,66,0.00,,,0.00,Wunderground v.1.15,2013-04-25 09:26:00,
2013-04-25 05:30:00,40.5,30.8,30.11,NW,307,0.0,1.0,68,0.00,,,0.00,Wunderground v.1.15,2013-04-25 09:30:00,
2013-04-25 05:31:00,40.3,30.6,30.11,NW,307,0.0,1.0,68,0.00,,,0.00,Wunderground v.1.15,2013-04-25 09:31:00,
2013-04-25 05:33:00,40.2,30.5,30.12,NW,307,0.0,1.0,68,0.00,,,0.00,Wunderground v.1.15,2013-04-25 09:33:00,
2013-04-25 05:36:00,40.1,30.4,30.12,NW,307,0.0,1.0,68,0.00,,,0.00,Wunderground v.1.15,2013-04-25 09:36:00,
2013-04-25 05:37:00,40.1,30.0,30.12,NW,307,0.0,1.0,67,0.00,,,0.00,Wunderground v.1.15,2013-04-25 09:37:00,
2013-04-25 05:39:00,40.1,30.0,30.12,NW,307,0.0,1.0,67,0.00,,,0.00,Wunderground v.1.15,2013-04-25 09:39:00,
2013-04-25 05:41:00,39.9,30.2,30.12,NW,307,0.0,0.0,68,0.00,,,0.00,Wunderground v.1.15,2013-04-25 09:41:00,
2013-04-25 05:43:00,39.9,30.2,30.12,NW,307,0.0,0.0,68,0.00,,,0.00,Wunderground v.1.15,2013-04-25 09:43:00,
2013-04-25 05:45:00,39.8,30.5,30.12,NW,307,0.0,0.0,69,0.00,,,0.00,Wunderground v.1.15,2013-04-25 09:45:00,
2013-04-25 05:46:00,39.8,30.5,30.12,NW,307,0.0,0.0,69,0.00,,,0.00,Wunderground v.1.15,2013-04-25 09:46:00,
2013-04-25 05:47:00,39.6,30.3,30.13,NW,307,0.0,0.0,69,0.00,,,0.00,Wunderground v.1.15,2013-04-25 09:47:00,
2013-04-25 05:51:00,39.3,30.3,30.13,NW,307,0.0,0.0,70,0.00,,,0.00,Wunderground v.1.15,2013-04-25 09:51:00,
2013-04-25 05:52:00,39.3,30.7,30.13,NW,307,0.0,0.0,71,0.00,,,0.00,Wunderground v.1.15,2013-04-25 09:52:00,
2013-04-25 05:53:00,39.2,30.6,30.13,NW,307,0.0,0.0,71,0.00,,,0.00,Wunderground v.1.15,2013-04-25 09:53:00,
2013-04-25 05:54:00,39.2,30.9,30.13,NW,307,0.0,0.0,72,0.00,,,0.00,Wunderground v.1.15,2013-04-25 09:54:00,
2013-04-25 05:56:00,38.9,30.6,30.13,NW,307,0.0,0.0,72,0.00,,,0.00,Wunderground v.1.15,2013-04-25 09:56:00,
2013-04-25 05:58:00,38.8,30.9,30.13,NW,307,0.0,0.0,73,0.00,,,0.00,Wunderground v.1.15,2013-04-25 09:58:00,
2013-04-25 05:59:00,38.8,30.9,30.13,NW,307,0.0,0.0,73,0.00,,,0.00,Wunderground v.1.15,2013-04-25 09:59:00,
2013-04-25 06:00:00,38.6,30.7,30.13,NW,307,0.0,0.0,73,0.00,,,0.00,Wunderground v.1.15,2013-04-25 10:00:00,
2013-04-25 06:04:00,38.3,30.7,30.13,NW,307,0.0,0.0,74,0.00,,,0.00,Wunderground v.1.15,2013-04-25 10:04:00,
2013-04-25 06:05:00,38.2,31.0,30.13,NW,307,0.0,0.0,75,0.00,,,0.00,Wunderground v.1.15,2013-04-25 10:05:00,
2013-04-25 06:09:00,38.0,30.8,30.13,NW,307,0.0,1.0,75,0.00,,,0.00,Wunderground v.1.15,2013-04-25 10:09:00,
2013-04-25 06:11:00,37.9,30.7,30.13,NW,307,0.0,0.0,75,0.00,,,0.00,Wunderground v.1.15,2013-04-25 10:11:00,
2013-04-25 06:12:00,37.9,30.7,30.13,NW,307,0.0,0.0,75,0.00,,,0.00,Wunderground v.1.15,2013-04-25 10:12:00,
2013-04-25 06:16:00,37.8,30.9,30.13,NW,307,0.0,0.0,76,0.00,,,0.00,Wunderground v.1.15,2013-04-25 10:16:00,
2013-04-25 06:17:00,37.6,30.7,30.16,NW,307,0.0,0.0,76,0.00,,,0.00,Wunderground v.1.15,2013-04-25 10:17:00,
2013-04-25 06:18:00,37.6,30.7,30.16,NW,307,0.0,0.0,76,0.00,,,0.00,Wunderground v.1.15,2013-04-25 10:18:00,
2013-04-25 06:21:00,37.5,30.9,30.16,NW,307,0.0,0.0,77,0.00,,,0.00,Wunderground v.1.15,2013-04-25 10:21:00,
2013-04-25 06:23:00,37.3,30.7,30.16,NW,307,0.0,0.0,77,0.00,,,0.00,Wunderground v.1.15,2013-04-25 10:23:00,
2013-04-25 06:24:00,37.3,30.7,30.16,NW,307,0.0,0.0,77,0.00,,,0.00,Wunderground v.1.15,2013-04-25 10:24:00,
2013-04-25 06:28:00,37.2,30.7,30.16,NW,307,0.0,0.0,77,0.00,,,0.00,Wunderground v.1.15,2013-04-25 10:28:00,
2013-04-25 06:29:00,37.0,30.5,30.16,NW,307,0.0,0.0,77,0.00,,,0.00,Wunderground v.1.15,2013-04-25 10:29:00,
2013-04-25 06:30:00,37.0,30.8,30.16,NW,307,0.0,0.0,78,0.00,,,0.00,Wunderground v.1.15,2013-04-25 10:30:00,
2013-04-25 06:33:00,36.9,30.7,30.16,NW,307,0.0,0.0,78,0.00,,,0.00,Wunderground v.1.15,2013-04-25 10:33:00,
2013-04-25 06:35:00,36.8,30.6,30.16,NW,307,0.0,0.0,78,0.00,,,0.00,Wunderground v.1.15,2013-04-25 10:35:00,
2013-04-25 06:36:00,36.6,30.4,30.16,NW,307,0.0,0.0,78,0.00,,,0.00,Wunderground v.1.15,2013-04-25 10:36:00,
2013-04-25 06:38:00,36.6,30.7,30.16,NW,307,0.0,0.0,79,0.00,,,0.00,Wunderground v.1.15,2013-04-25 10:38:00,
2013-04-25 06:39:00,36.6,30.7,30.16,NW,307,0.0,0.0,79,0.00,,,0.00,Wunderground v.1.15,2013-04-25 10:39:00,
2013-04-25 06:40:00,36.5,30.6,30.16,NW,307,0.0,0.0,79,0.00,,,0.00,Wunderground v.1.15,2013-04-25 10:40:00,
2013-04-25 06:41:00,36.5,30.6,30.16,NW,307,0.0,0.0,79,0.00,,,0.00,Wunderground v.1.15,2013-04-25 10:41:00,
2013-04-25 06:46:00,36.3,30.4,30.16,NW,307,0.0,0.0,79,0.00,,,0.00,Wunderground v.1.15,2013-04-25 10:46:00,
2013-04-25 06:48:00,36.3,30.4,30.17,NW,307,0.0,0.0,79,0.00,,,0.00,Wunderground v.1.15,2013-04-25 10:48:00,
2013-04-25 06:49:00,36.2,30.3,30.17,NW,307,0.0,0.0,79,0.00,,,0.00,Wunderground v.1.15,2013-04-25 10:49:00,
2013-04-25 06:53:00,36.2,30.6,30.17,NW,307,0.0,0.0,80,0.00,,,0.00,Wunderground v.1.15,2013-04-25 10:53:00,
2013-04-25 06:54:00,36.2,30.6,30.17,NW,307,0.0,0.0,80,0.00,,,0.00,Wunderground v.1.15,2013-04-25 10:54:00,
2013-04-25 06:56:00,36.0,30.4,30.17,NW,307,0.0,0.0,80,0.00,,,0.00,Wunderground v.1.15,2013-04-25 10:56:00,
2013-04-25 06:58:00,36.0,30.4,30.17,NW,307,0.0,0.0,80,0.00,,,0.00,Wunderground v.1.15,2013-04-25 10:58:00,
2013-04-25 06:59:00,36.0,30.4,30.17,NW,307,0.0,0.0,80,0.00,,,0.00,Wunderground v.1.15,2013-04-25 10:59:00,
2013-04-25 07:00:00,36.0,30.7,30.17,NW,307,0.0,0.0,81,0.00,,,0.00,Wunderground v.1.15,2013-04-25 11:00:00,
2013-04-25 07:02:00,36.0,30.7,30.18,NW,307,0.0,0.0,81,0.00,,,0.00,Wunderground v.1.15,2013-04-25 11:02:00,
2013-04-25 07:04:00,36.0,30.7,30.18,NW,307,0.0,0.0,81,0.00,,,0.00,Wunderground v.1.15,2013-04-25 11:04:00,
2013-04-25 07:06:00,36.0,30.7,30.18,NW,307,0.0,0.0,81,0.00,,,0.00,Wunderground v.1.15,2013-04-25 11:06:00,
2013-04-25 07:07:00,36.0,30.7,30.18,NW,307,0.0,0.0,81,0.00,,,0.00,Wunderground v.1.15,2013-04-25 11:07:00,
2013-04-25 07:11:00,36.2,30.9,30.18,NW,307,0.0,0.0,81,0.00,,,0.00,Wunderground v.1.15,2013-04-25 11:11:00,
2013-04-25 07:13:00,36.3,31.0,30.18,NW,307,0.0,0.0,81,0.00,,,0.00,Wunderground v.1.15,2013-04-25 11:13:00,
2013-04-25 07:14:00,36.5,31.2,30.18,NW,307,0.0,0.0,81,0.00,,,0.00,Wunderground v.1.15,2013-04-25 11:14:00,
2013-04-25 07:15:00,36.6,31.3,30.18,NW,307,0.0,0.0,81,0.00,,,0.00,Wunderground v.1.15,2013-04-25 11:15:00,
2013-04-25 07:19:00,36.8,31.5,30.19,NW,307,0.0,0.0,81,0.00,,,0.00,Wunderground v.1.15,2013-04-25 11:19:00,
2013-04-25 07:20:00,36.9,31.3,30.19,NW,307,0.0,0.0,80,0.00,,,0.00,Wunderground v.1.15,2013-04-25 11:20:00,
2013-04-25 07:21:00,36.9,31.6,30.19,NW,307,0.0,0.0,81,0.00,,,0.00,Wunderground v.1.15,2013-04-25 11:21:00,
2013-04-25 07:23:00,37.0,31.7,30.19,NW,307,0.0,0.0,81,0.00,,,0.00,Wunderground v.1.15,2013-04-25 11:23:00,
2013-04-25 07:25:00,37.2,31.9,30.19,NW,307,0.0,0.0,81,0.00,,,0.00,Wunderground v.1.15,2013-04-25 11:25:00,
2013-04-25 07:26:00,37.2,31.9,30.19,NW,307,0.0,0.0,81,0.00,,,0.00,Wunderground v.1.15,2013-04-25 11:26:00,
2013-04-25 07:28:00,37.3,32.0,30.19,NW,307,0.0,0.0,81,0.00,,,0.00,Wunderground v.1.15,2013-04-25 11:28:00,
2013-04-25 07:31:00,37.5,32.2,30.19,NW,307,0.0,0.0,81,0.00,,,0.00,Wunderground v.1.15,2013-04-25 11:31:00,
2013-04-25 07:32:00,37.6,32.3,30.19,NW,307,0.0,0.0,81,0.00,,,0.00,Wunderground v.1.15,2013-04-25 11:32:00,
2013-04-25 07:33:00,37.6,32.3,30.19,NW,307,0.0,0.0,81,0.00,,,0.00,Wunderground v.1.15,2013-04-25 11:33:00,
2013-04-25 07:37:00,37.9,32.9,30.19,NW,307,0.0,0.0,82,0.00,,,0.00,Wunderground v.1.15,2013-04-25 11:37:00,
2013-04-25 07:38:00,37.9,32.9,30.19,NW,307,0.0,0.0,82,0.00,,,0.00,Wunderground v.1.15,2013-04-25 11:38:00,
2013-04-25 07:39:00,38.0,33.0,30.19,NW,307,0.0,0.0,82,0.00,,,0.00,Wunderground v.1.15,2013-04-25 11:39:00,
2013-04-25 07:41:00,38.2,32.9,30.19,NW,307,0.0,0.0,81,0.00,,,0.00,Wunderground v.1.15,2013-04-25 11:41:00,
2013-04-25 07:42:00,38.2,32.9,30.19,NW,307,0.0,0.0,81,0.00,,,0.00,Wunderground v.1.15,2013-04-25 11:42:00,
2013-04-25 07:43:00,38.2,32.9,30.19,NW,307,0.0,0.0,81,0.00,,,0.00,Wunderground v.1.15,2013-04-25 11:43:00,
2013-04-25 07:44:00,38.2,32.9,30.19,NW,307,0.0,0.0,81,0.00,,,0.00,Wunderground v.1.15,2013-04-25 11:44:00,
2013-04-25 07:46:00,38.3,33.0,30.19,NW,307,0.0,0.0,81,0.00,,,0.00,Wunderground v.1.15,2013-04-25 11:46:00,
2013-04-25 07:47:00,38.3,32.7,30.20,NW,307,0.0,0.0,80,0.00,,,0.00,Wunderground v.1.15,2013-04-25 11:47:00,
2013-04-25 07:50:00,38.5,33.2,30.20,NW,307,0.0,0.0,81,0.00,,,0.00,Wunderground v.1.15,2013-04-25 11:50:00,
2013-04-25 07:52:00,38.5,33.2,30.20,NW,307,0.0,0.0,81,0.00,,,0.00,Wunderground v.1.15,2013-04-25 11:52:00,
2013-04-25 07:54:00,38.6,33.0,30.20,SSW,207,0.0,0.0,80,0.00,,,0.00,Wunderground v.1.15,2013-04-25 11:54:00,
2013-04-25 07:56:00,38.6,33.0,30.20,SSW,207,0.0,0.0,80,0.00,,,0.00,Wunderground v.1.15,2013-04-25 11:56:00,
2013-04-25 07:57:00,38.6,33.0,30.20,SSW,207,0.0,0.0,80,0.00,,,0.00,Wunderground v.1.15,2013-04-25 11:57:00,
2013-04-25 07:59:00,38.6,33.0,30.20,SSW,207,0.0,0.0,80,0.00,,,0.00,Wunderground v.1.15,2013-04-25 11:59:00,
2013-04-25 08:01:00,38.6,33.0,30.20,SSW,207,0.0,0.0,80,0.00,,,0.00,Wunderground v.1.15,2013-04-25 12:01:00,
2013-04-25 08:02:00,38.6,33.0,30.20,SSW,207,0.0,0.0,80,0.00,,,0.00,Wunderground v.1.15,2013-04-25 12:02:00,
2013-04-25 08:06:00,38.6,32.6,30.20,SSW,207,0.0,0.0,79,0.00,,,0.00,Wunderground v.1.15,2013-04-25 12:06:00,
2013-04-25 08:07:00,38.6,32.6,30.20,SSW,207,0.0,0.0,79,0.00,,,0.00,Wunderground v.1.15,2013-04-25 12:07:00,
2013-04-25 08:08:00,38.6,32.6,30.20,SSW,207,0.0,0.0,79,0.00,,,0.00,Wunderground v.1.15,2013-04-25 12:08:00,
2013-04-25 08:10:00,38.6,32.6,30.20,SSW,207,0.0,0.0,79,0.00,,,0.00,Wunderground v.1.15,2013-04-25 12:10:00,
2013-04-25 08:12:00,38.8,32.8,30.20,SSW,207,0.0,0.0,79,0.00,,,0.00,Wunderground v.1.15,2013-04-25 12:12:00,
2013-04-25 08:13:00,38.8,32.8,30.20,SSW,207,0.0,0.0,79,0.00,,,0.00,Wunderground v.1.15,2013-04-25 12:13:00,
2013-04-25 08:15:00,38.9,32.9,30.20,SSW,207,0.0,0.0,79,0.00,,,0.00,Wunderground v.1.15,2013-04-25 12:15:00,
2013-04-25 08:16:00,38.9,32.9,30.20,SSW,207,0.0,0.0,79,0.00,,,0.00,Wunderground v.1.15,2013-04-25 12:16:00,
2013-04-25 08:18:00,39.1,33.5,30.21,SSW,207,0.0,0.0,80,0.00,,,0.00,Wunderground v.1.15,2013-04-25 12:18:00,
2013-04-25 08:20:00,39.2,33.5,30.21,SSW,207,0.0,0.0,80,0.00,,,0.00,Wunderground v.1.15,2013-04-25 12:20:00,
2013-04-25 08:21:00,39.2,33.5,30.21,SSW,209,0.0,1.0,80,0.00,,,0.00,Wunderground v.1.15,2013-04-25 12:21:00,
2013-04-25 08:24:00,39.5,33.8,30.21,SSW,209,0.0,1.0,80,0.00,,,0.00,Wunderground v.1.15,2013-04-25 12:24:00,
2013-04-25 08:25:00,39.6,33.6,30.21,SSW,209,1.0,1.0,79,0.00,,,0.00,Wunderground v.1.15,2013-04-25 12:25:00,
2013-04-25 08:26:00,39.8,33.5,30.21,SSW,209,1.0,2.0,78,0.00,,,0.00,Wunderground v.1.15,2013-04-25 12:26:00,
2013-04-25 08:30:00,40.5,33.2,30.21,SSW,209,1.0,2.0,75,0.00,,,0.00,Wunderground v.1.15,2013-04-25 12:30:00,
2013-04-25 08:31:00,40.6,33.3,30.21,SSW,212,1.0,3.0,75,0.00,,,0.00,Wunderground v.1.15,2013-04-25 12:31:00,
2013-04-25 08:33:00,40.9,33.2,30.21,SW,227,2.0,4.0,74,0.00,,,0.00,Wunderground v.1.15,2013-04-25 12:33:00,
2013-04-25 08:36:00,41.5,32.4,30.21,WNW,298,2.0,5.0,70,0.00,,,0.00,Wunderground v.1.15,2013-04-25 12:36:00,
2013-04-25 08:39:00,41.9,32.8,30.21,WNW,286,2.0,5.0,70,0.00,,,0.00,Wunderground v.1.15,2013-04-25 12:39:00,
2013-04-25 08:40:00,42.1,33.0,30.21,WNW,286,2.0,2.0,70,0.00,,,0.00,Wunderground v.1.15,2013-04-25 12:40:00,
2013-04-25 08:42:00,42.3,33.2,30.21,WNW,286,2.0,2.0,70,0.00,,,0.00,Wunderground v.1.15,2013-04-25 12:42:00,
2013-04-25 08:45:00,42.6,32.4,30.21,WNW,286,1.0,2.0,67,0.00,,,0.00,Wunderground v.1.15,2013-04-25 12:45:00,
2013-04-25 08:47:00,42.9,32.3,30.21,WNW,286,1.0,2.0,66,0.00,,,0.00,Wunderground v.1.15,2013-04-25 12:47:00,
2013-04-25 08:48:00,43.1,31.7,30.21,WNW,287,1.0,2.0,64,0.00,,,0.00,Wunderground v.1.15,2013-04-25 12:48:00,
2013-04-25 08:51:00,43.3,30.7,30.21,West,281,2.0,2.0,61,0.00,,,0.00,Wunderground v.1.15,2013-04-25 12:51:00,
2013-04-25 08:53:00,43.6,30.6,30.21,West,281,2.0,2.0,60,0.00,,,0.00,Wunderground v.1.15,2013-04-25 12:53:00,
2013-04-25 08:57:00,43.9,30.1,30.21,West,281,2.0,3.0,58,0.00,,,0.00,Wunderground v.1.15,2013-04-25 12:57:00,
2013-04-25 08:58:00,43.9,29.6,30.21,West,281,2.0,3.0,57,0.00,,,0.00,Wunderground v.1.15,2013-04-25 12:58:00,
2013-04-25 08:59:00,44.1,29.4,30.21,West,281,2.0,3.0,56,0.00,,,0.00,Wunderground v.1.15,2013-04-25 12:59:00,
2013-04-25 09:00:00,44.1,29.4,30.21,West,281,1.0,1.0,56,0.00,,,0.00,Wunderground v.1.15,2013-04-25 13:00:00,
2013-04-25 09:04:00,44.3,30.0,30.22,West,281,1.0,4.0,57,0.00,,,0.00,Wunderground v.1.15,2013-04-25 13:04:00,
2013-04-25 09:05:00,44.5,30.6,30.22,West,281,2.0,4.0,58,0.00,,,0.00,Wunderground v.1.15,2013-04-25 13:05:00,
2013-04-25 09:07:00,44.6,30.7,30.22,North,5,1.0,4.0,58,0.00,,,0.00,Wunderground v.1.15,2013-04-25 13:07:00,
2013-04-25 09:11:00,44.9,31.0,30.22,WNW,284,2.0,3.0,58,0.00,,,0.00,Wunderground v.1.15,2013-04-25 13:11:00,
2013-04-25 09:12:00,45.1,30.8,30.22,WNW,284,2.0,3.0,57,0.00,,,0.00,Wunderground v.1.15,2013-04-25 13:12:00,
2013-04-25 09:13:00,45.1,30.3,30.22,WNW,284,2.0,3.0,56,0.00,,,0.00,Wunderground v.1.15,2013-04-25 13:13:00,
2013-04-25 09:15:00,45.2,30.9,30.22,WNW,288,2.0,3.0,57,0.00,,,0.00,Wunderground v.1.15,2013-04-25 13:15:00,
2013-04-25 09:17:00,45.2,30.0,30.22,WNW,288,2.0,3.0,55,0.00,,,0.00,Wunderground v.1.15,2013-04-25 13:17:00,
2013-04-25 09:19:00,45.2,30.0,30.22,WNW,288,1.0,3.0,55,0.00,,,0.00,Wunderground v.1.15,2013-04-25 13:19:00,
2013-04-25 09:20:00,45.2,30.0,30.22,NNW,348,1.0,1.0,55,0.00,,,0.00,Wunderground v.1.15,2013-04-25 13:20:00,
2013-04-25 09:21:00,45.2,30.0,30.22,East,100,1.0,1.0,55,0.00,,,0.00,Wunderground v.1.15,2013-04-25 13:21:00,
2013-04-25 09:22:00,45.2,30.0,30.22,East,100,1.0,1.0,55,0.00,,,0.00,Wunderground v.1.15,2013-04-25 13:22:00,
2013-04-25 09:26:00,45.4,31.0,30.22,NNW,344,1.0,1.0,57,0.00,,,0.00,Wunderground v.1.15,2013-04-25 13:26:00,
2013-04-25 09:28:00,45.4,30.2,30.22,NNW,344,1.0,1.0,55,0.00,,,0.00,Wunderground v.1.15,2013-04-25 13:28:00,
2013-04-25 09:29:00,45.5,30.7,30.22,NNW,346,1.0,1.0,56,0.00,,,0.00,Wunderground v.1.15,2013-04-25 13:29:00,
2013-04-25 09:31:00,45.7,30.9,30.22,North,355,1.0,1.0,56,0.00,,,0.00,Wunderground v.1.15,2013-04-25 13:31:00,
2013-04-25 09:32:00,45.8,31.0,30.21,NNW,347,0.0,1.0,56,0.00,,,0.00,Wunderground v.1.15,2013-04-25 13:32:00,
2013-04-25 09:33:00,46.0,32.0,30.21,NNW,347,0.0,1.0,58,0.00,,,0.00,Wunderground v.1.15,2013-04-25 13:33:00,
2013-04-25 09:37:00,46.2,31.4,30.21,NNW,342,0.0,2.0,56,0.00,,,0.00,Wunderground v.1.15,2013-04-25 13:37:00,
2013-04-25 09:38:00,46.4,31.5,30.21,North,9,0.0,2.0,56,0.00,,,0.00,Wunderground v.1.15,2013-04-25 13:38:00,
2013-04-25 09:39:00,46.5,31.6,30.21,NNE,31,0.0,2.0,56,0.00,,,0.00,Wunderground v.1.15,2013-04-25 13:39:00,
2013-04-25 09:43:00,47.0,31.2,30.21,NW,306,2.0,4.0,54,0.00,,,0.00,Wunderground v.1.15,2013-04-25 13:43:00,
2013-04-25 09:44:00,47.0,30.7,30.21,NW,306,2.0,4.0,53,0.00,,,0.00,Wunderground v.1.15,2013-04-25 13:44:00,
2013-04-25 09:45:00,47.0,30.3,30.21,WNW,294,2.0,4.0,52,0.00,,,0.00,Wunderground v.1.15,2013-04-25 13:45:00,
2013-04-25 09:46:00,47.0,31.7,30.21,WNW,294,2.0,4.0,55,0.00,,,0.00,Wunderground v.1.15,2013-04-25 13:46:00,
2013-04-25 09:50:00,47.4,31.1,30.21,WNW,298,1.0,1.0,53,0.00,,,0.00,Wunderground v.1.15,2013-04-25 13:50:00,
2013-04-25 09:51:00,47.6,31.3,30.21,WNW,298,1.0,1.0,53,0.00,,,0.00,Wunderground v.1.15,2013-04-25 13:51:00,
2013-04-25 09:52:00,47.7,30.9,30.21,WNW,298,1.0,1.0,52,0.00,,,0.00,Wunderground v.1.15,2013-04-25 13:52:00,
2013-04-25 09:56:00,48.0,31.2,30.21,WNW,289,1.0,5.0,52,0.00,,,0.00,Wunderground v.1.15,2013-04-25 13:56:00,
2013-04-25 09:57:00,48.0,31.2,30.21,WNW,290,1.0,5.0,52,0.00,,,0.00,Wunderground v.1.15,2013-04-25 13:57:00,
2013-04-25 09:58:00,48.0,31.2,30.21,WNW,290,1.0,5.0,52,0.00,,,0.00,Wunderground v.1.15,2013-04-25 13:58:00,
2013-04-25 10:00:00,48.0,33.0,30.21,NNW,347,1.0,5.0,56,0.00,,,0.00,Wunderground v.1.15,2013-04-25 14:00:00,
2013-04-25 10:02:00,48.0,33.0,30.21,NNE,28,1.0,5.0,56,0.00,,,0.00,Wunderground v.1.15,2013-04-25 14:02:00,
2013-04-25 10:04:00,48.2,33.2,30.21,NNE,13,2.0,5.0,56,0.00,,,0.00,Wunderground v.1.15,2013-04-25 14:04:00,
2013-04-25 10:05:00,48.0,30.7,30.21,NNE,12,1.0,5.0,51,0.00,,,0.00,Wunderground v.1.15,2013-04-25 14:05:00,
2013-04-25 10:08:00,47.9,31.1,30.21,NNE,24,1.0,5.0,52,0.00,,,0.00,Wunderground v.1.15,2013-04-25 14:08:00,
2013-04-25 10:10:00,48.0,31.2,30.21,West,267,1.0,1.0,52,0.00,,,0.00,Wunderground v.1.15,2013-04-25 14:10:00,
2013-04-25 10:11:00,48.0,31.2,30.21,West,267,1.0,1.0,52,0.00,,,0.00,Wunderground v.1.15,2013-04-25 14:11:00,
2013-04-25 10:12:00,48.2,32.8,30.21,NNE,24,1.0,5.0,55,0.00,,,0.00,Wunderground v.1.15,2013-04-25 14:12:00,
2013-04-25 10:13:00,48.3,32.4,30.21,ENE,67,1.0,5.0,54,0.00,,,0.00,Wunderground v.1.15,2013-04-25 14:13:00,
2013-04-25 10:17:00,48.9,31.5,30.21,ENE,67,1.0,5.0,51,0.00,,,0.00,Wunderground v.1.15,2013-04-25 14:17:00,
2013-04-25 10:19:00,49.1,33.2,30.21,ENE,67,1.0,5.0,54,0.00,,,0.00,Wunderground v.1.15,2013-04-25 14:19:00,
2013-04-25 10:20:00,49.2,33.7,30.21,ENE,67,1.0,1.0,55,0.00,,,0.00,Wunderground v.1.15,2013-04-25 14:20:00,
2013-04-25 10:24:00,49.2,31.8,30.21,NE,54,1.0,2.0,51,0.00,,,0.00,Wunderground v.1.15,2013-04-25 14:24:00,
2013-04-25 10:25:00,49.2,32.3,30.21,West,269,1.0,3.0,52,0.00,,,0.00,Wunderground v.1.15,2013-04-25 14:25:00,
2013-04-25 10:27:00,49.1,32.7,30.21,WNW,289,1.0,4.0,53,0.00,,,0.00,Wunderground v.1.15,2013-04-25 14:27:00,
2013-04-25 10:28:00,49.1,32.2,30.21,WNW,289,2.0,4.0,52,0.00,,,0.00,Wunderground v.1.15,2013-04-25 14:28:00,
2013-04-25 10:30:00,48.9,31.5,30.21,WNW,289,2.0,2.0,51,0.00,,,0.00,Wunderground v.1.15,2013-04-25 14:30:00,
2013-04-25 10:32:00,48.8,32.9,30.21,WNW,289,2.0,2.0,54,0.00,,,0.00,Wunderground v.1.15,2013-04-25 14:32:00,
2013-04-25 10:33:00,48.8,31.5,30.21,WNW,289,2.0,2.0,51,0.00,,,0.00,Wunderground v.1.15,2013-04-25 14:33:00,
2013-04-25 10:35:00,48.6,30.8,30.21,WNW,289,2.0,2.0,50,0.00,,,0.00,Wunderground v.1.15,2013-04-25 14:35:00,
2013-04-25 10:38:00,48.9,31.5,30.21,WNW,289,1.0,2.0,51,0.00,,,0.00,Wunderground v.1.15,2013-04-25 14:38:00,
2013-04-25 10:39:00,48.9,31.1,30.21,WNW,289,1.0,2.0,50,0.00,,,0.00,Wunderground v.1.15,2013-04-25 14:39:00,
2013-04-25 10:40:00,48.9,31.1,30.21,WNW,289,0.0,0.0,50,0.00,,,0.00,Wunderground v.1.15,2013-04-25 14:40:00,
2013-04-25 10:42:00,49.1,30.7,30.21,WSW,241,0.0,2.0,49,0.00,,,0.00,Wunderground v.1.15,2013-04-25 14:42:00,
2013-04-25 10:43:00,49.2,31.3,30.21,SE,135,0.0,2.0,50,0.00,,,0.00,Wunderground v.1.15,2013-04-25 14:43:00,
2013-04-25 10:44:00,49.5,32.6,30.21,SE,135,1.0,2.0,52,0.00,,,0.00,Wunderground v.1.15,2013-04-25 14:44:00,
2013-04-25 10:47:00,49.9,31.5,30.21,ESE,115,1.0,2.0,49,0.00,,,0.00,Wunderground v.1.15,2013-04-25 14:47:00,
2013-04-25 10:49:00,50.2,31.8,30.21,ESE,115,1.0,2.0,49,0.00,,,0.00,Wunderground v.1.15,2013-04-25 14:49:00,
2013-04-25 10:50:00,50.5,33.5,30.21,ESE,115,0.0,0.0,52,0.00,,,0.00,Wunderground v.1.15,2013-04-25 14:50:00,
2013-04-25 10:51:00,50.7,34.6,30.21,ESE,117,0.0,1.0,54,0.00,,,0.00,Wunderground v.1.15,2013-04-25 14:51:00,
2013-04-25 10:52:00,50.8,33.8,30.21,ESE,117,1.0,1.0,52,0.00,,,0.00,Wunderground v.1.15,2013-04-25 14:52:00,
2013-04-25 10:55:00,51.3,34.3,30.21,ESE,117,0.0,1.0,52,0.00,,,0.00,Wunderground v.1.15,2013-04-25 14:55:00,
2013-04-25 10:58:00,51.7,32.1,30.21,ESE,111,0.0,2.0,47,0.00,,,0.00,Wunderground v.1.15,2013-04-25 14:58:00,
2013-04-25 11:00:00,51.9,32.8,30.21,SE,128,1.0,4.0,48,0.00,,,0.00,Wunderground v.1.15,2013-04-25 15:00:00,
2013-04-25 11:01:00,51.9,33.3,30.20,SE,132,1.0,4.0,49,0.00,,,0.00,Wunderground v.1.15,2013-04-25 15:01:00,
2013-04-25 11:04:00,52.2,35.1,30.20,SE,126,1.0,4.0,52,0.00,,,0.00,Wunderground v.1.15,2013-04-25 15:04:00,
2013-04-25 11:05:00,52.3,33.7,30.20,SE,126,1.0,4.0,49,0.00,,,0.00,Wunderground v.1.15,2013-04-25 15:05:00,
2013-04-25 11:06:00,52.3,33.7,30.20,SE,126,1.0,4.0,49,0.00,,,0.00,Wunderground v.1.15,2013-04-25 15:06:00,
2013-04-25 11:07:00,52.3,33.2,30.20,SE,128,1.0,4.0,48,0.00,,,0.00,Wunderground v.1.15,2013-04-25 15:07:00,
2013-04-25 11:09:00,52.5,33.9,30.20,SE,128,1.0,4.0,49,0.00,,,0.00,Wunderground v.1.15,2013-04-25 15:09:00,
2013-04-25 11:11:00,52.5,34.9,30.20,SE,128,1.0,1.0,51,0.00,,,0.00,Wunderground v.1.15,2013-04-25 15:11:00,
2013-04-25 11:12:00,52.6,35.5,30.20,SE,128,1.0,2.0,52,0.00,,,0.00,Wunderground v.1.15,2013-04-25 15:12:00,
2013-04-25 11:14:00,52.8,34.2,30.20,SE,128,0.0,2.0,49,0.00,,,0.00,Wunderground v.1.15,2013-04-25 15:14:00,
2013-04-25 11:17:00,53.1,33.4,30.20,NNE,13,1.0,4.0,47,0.00,,,0.00,Wunderground v.1.15,2013-04-25 15:17:00,
2013-04-25 11:18:00,53.2,33.5,30.20,NNW,330,1.0,4.0,47,0.00,,,0.00,Wunderground v.1.15,2013-04-25 15:18:00,
2013-04-25 11:20:00,53.2,35.0,30.20,NW,314,1.0,2.0,50,0.00,,,0.00,Wunderground v.1.15,2013-04-25 15:20:00,
2013-04-25 11:22:00,53.1,36.4,30.20,NW,314,1.0,2.0,53,0.00,,,0.00,Wunderground v.1.15,2013-04-25 15:22:00,
2013-04-25 11:24:00,52.8,33.1,30.20,West,280,1.0,2.0,47,0.00,,,0.00,Wunderground v.1.15,2013-04-25 15:24:00,
2013-04-25 11:25:00,52.6,34.0,30.20,West,280,1.0,2.0,49,0.00,,,0.00,Wunderground v.1.15,2013-04-25 15:25:00,
2013-04-25 11:29:00,52.3,32.1,30.20,West,281,2.0,2.0,46,0.00,,,0.00,Wunderground v.1.15,2013-04-25 15:29:00,
2013-04-25 11:32:00,52.3,32.1,30.20,WNW,290,2.0,5.0,46,0.00,,,0.00,Wunderground v.1.15,2013-04-25 15:32:00,
2013-04-25 11:33:00,52.3,31.6,30.20,WNW,296,2.0,5.0,45,0.00,,,0.00,Wunderground v.1.15,2013-04-25 15:33:00,
2013-04-25 11:37:00,52.5,32.8,30.20,WNW,288,2.0,5.0,47,0.00,,,0.00,Wunderground v.1.15,2013-04-25 15:37:00,
2013-04-25 11:38:00,52.5,32.8,30.20,WNW,288,2.0,5.0,47,0.00,,,0.00,Wunderground v.1.15,2013-04-25 15:38:00,
2013-04-25 11:39:00,52.5,32.3,30.20,WNW,288,2.0,5.0,46,0.00,,,0.00,Wunderground v.1.15,2013-04-25 15:39:00,
2013-04-25 11:40:00,52.5,33.4,30.20,WNW,283,2.0,2.0,48,0.00,,,0.00,Wunderground v.1.15,2013-04-25 15:40:00,
2013-04-25 11:45:00,53.6,34.4,30.20,North,5,1.0,4.0,48,0.00,,,0.00,Wunderground v.1.15,2013-04-25 15:45:00,
2013-04-25 11:46:00,53.6,33.3,30.20,North,5,1.0,4.0,46,0.00,,,0.00,Wunderground v.1.15,2013-04-25 15:46:00,
2013-04-25 11:49:00,53.9,34.6,30.20,North,360,1.0,4.0,48,0.00,,,0.00,Wunderground v.1.15,2013-04-25 15:49:00,
2013-04-25 11:50:00,53.9,35.7,30.20,North,360,1.0,1.0,50,0.00,,,0.00,Wunderground v.1.15,2013-04-25 15:50:00,
2013-04-25 11:51:00,54.1,35.3,30.20,NNE,12,1.0,1.0,49,0.00,,,0.00,Wunderground v.1.15,2013-04-25 15:51:00,
2013-04-25 11:54:00,54.1,34.8,30.20,SW,217,2.0,4.0,48,0.00,,,0.00,Wunderground v.1.15,2013-04-25 15:54:00,
2013-04-25 11:55:00,54.1,33.8,30.20,South,178,2.0,5.0,46,0.00,,,0.00,Wunderground v.1.15,2013-04-25 15:55:00,
2013-04-25 11:56:00,53.9,33.0,30.20,South,179,2.0,5.0,45,0.00,,,0.00,Wunderground v.1.15,2013-04-25 15:56:00,
2013-04-25 11:59:00,53.8,33.5,30.20,SE,133,3.0,9.0,46,0.00,,,0.00,Wunderground v.1.15,2013-04-25 15:59:00,
2013-04-25 12:01:00,53.9,33.0,30.20,East,99,3.0,3.0,45,0.00,,,0.00,Wunderground v.1.15,2013-04-25 16:01:00,
2013-04-25 12:02:00,53.9,33.0,30.20,East,98,3.0,3.0,45,0.00,,,0.00,Wunderground v.1.15,2013-04-25 16:02:00,
2013-04-25 12:05:00,54.2,33.9,30.20,SE,131,3.0,5.0,46,0.00,,,0.00,Wunderground v.1.15,2013-04-25 16:05:00,
2013-04-25 12:06:00,54.4,35.6,30.20,SW,234,3.0,5.0,49,0.00,,,0.00,Wunderground v.1.15,2013-04-25 16:06:00,
2013-04-25 12:07:00,54.4,35.6,30.20,SW,234,2.0,6.0,49,0.00,,,0.00,Wunderground v.1.15,2013-04-25 16:07:00,
2013-04-25 12:10:00,53.9,32.5,30.20,West,260,2.0,2.0,44,0.00,,,0.00,Wunderground v.1.15,2013-04-25 16:10:00,
2013-04-25 12:11:00,53.9,32.5,30.20,WSW,240,2.0,2.0,44,0.00,,,0.00,Wunderground v.1.15,2013-04-25 16:11:00,
2013-04-25 12:12:00,54.2,36.9,30.20,SW,226,2.0,2.0,52,0.00,,,0.00,Wunderground v.1.15,2013-04-25 16:12:00,
2013-04-25 12:16:00,55.1,37.3,30.20,South,188,1.0,2.0,51,0.00,,,0.00,Wunderground v.1.15,2013-04-25 16:16:00,
2013-04-25 12:19:00,55.9,35.4,30.20,ESE,117,1.0,2.0,46,0.00,,,0.00,Wunderground v.1.15,2013-04-25 16:19:00,
2013-04-25 12:20:00,56.0,34.4,30.20,NE,44,1.0,1.0,44,0.00,,,0.00,Wunderground v.1.15,2013-04-25 16:20:00,
2013-04-25 12:21:00,56.2,34.6,30.20,NE,44,1.0,1.0,44,0.00,,,0.00,Wunderground v.1.15,2013-04-25 16:21:00,
2013-04-25 12:23:00,56.3,34.1,30.20,NNE,33,1.0,1.0,43,0.00,,,0.00,Wunderground v.1.15,2013-04-25 16:23:00,
2013-04-25 12:25:00,56.2,32.8,30.20,NNE,19,2.0,5.0,41,0.00,,,0.00,Wunderground v.1.15,2013-04-25 16:25:00,
2013-04-25 12:29:00,56.3,33.5,30.20,SSE,160,2.0,5.0,42,0.00,,,0.00,Wunderground v.1.15,2013-04-25 16:29:00,
2013-04-25 12:30:00,56.5,35.4,30.20,WNW,284,2.0,2.0,45,0.00,,,0.00,Wunderground v.1.15,2013-04-25 16:30:00,
2013-04-25 12:31:00,56.5,36.0,30.20,SE,132,2.0,2.0,46,0.00,,,0.00,Wunderground v.1.15,2013-04-25 16:31:00,
2013-04-25 12:32:00,56.5,33.7,30.19,South,180,2.0,5.0,42,0.00,,,0.00,Wunderground v.1.15,2013-04-25 16:32:00,
2013-04-25 12:35:00,56.0,34.9,30.19,ESE,119,2.0,6.0,45,0.00,,,0.00,Wunderground v.1.15,2013-04-25 16:35:00,
2013-04-25 12:36:00,56.0,36.6,30.19,South,179,2.0,6.0,48,0.00,,,0.00,Wunderground v.1.15,2013-04-25 16:36:00,
2013-04-25 12:37:00,56.2,35.1,30.19,South,180,2.0,6.0,45,0.00,,,0.00,Wunderground v.1.15,2013-04-25 16:37:00,
2013-04-25 12:38:00,56.3,35.8,30.19,South,180,2.0,6.0,46,0.00,,,0.00,Wunderground v.1.15,2013-04-25 16:38:00,
2013-04-25 12:40:00,56.5,33.7,30.19,SSE,166,2.0,2.0,42,0.00,,,0.00,Wunderground v.1.15,2013-04-25 16:40:00,
2013-04-25 12:42:00,56.6,35.5,30.19,East,90,2.0,3.0,45,0.00,,,0.00,Wunderground v.1.15,2013-04-25 16:42:00,
2013-04-25 12:43:00,56.7,35.6,30.19,ESE,123,2.0,4.0,45,0.00,,,0.00,Wunderground v.1.15,2013-04-25 16:43:00,
2013-04-25 12:44:00,56.7,33.8,30.19,SE,140,2.0,5.0,42,0.00,,,0.00,Wunderground v.1.15,2013-04-25 16:44:00,
2013-04-25 12:46:00,56.7,33.2,30.19,ESE,118,2.0,5.0,41,0.00,,,0.00,Wunderground v.1.15,2013-04-25 16:46:00,
2013-04-25 12:47:00,56.9,34.6,30.19,East,101,2.0,5.0,43,0.00,,,0.00,Wunderground v.1.15,2013-04-25 16:47:00,
2013-04-25 12:49:00,56.9,32.2,30.19,SE,125,2.0,5.0,39,0.00,,,0.00,Wunderground v.1.15,2013-04-25 16:49:00,
2013-04-25 12:50:00,57.0,34.7,30.19,SE,125,2.0,2.0,43,0.00,,,0.00,Wunderground v.1.15,2013-04-25 16:50:00,
2013-04-25 12:52:00,57.0,31.6,30.19,SE,131,2.0,2.0,38,0.00,,,0.00,Wunderground v.1.15,2013-04-25 16:52:00,
2013-04-25 12:53:00,57.2,34.9,30.19,SE,137,2.0,2.0,43,0.00,,,0.00,Wunderground v.1.15,2013-04-25 16:53:00,
2013-04-25 12:54:00,57.2,34.9,30.19,SE,136,1.0,2.0,43,0.00,,,0.00,Wunderground v.1.15,2013-04-25 16:54:00,
2013-04-25 12:56:00,57.3,32.5,30.19,SE,136,1.0,2.0,39,0.00,,,0.00,Wunderground v.1.15,2013-04-25 16:56:00,
2013-04-25 12:57:00,57.5,35.2,30.19,North,355,1.0,2.0,43,0.00,,,0.00,Wunderground v.1.15,2013-04-25 16:57:00,
2013-04-25 13:01:00,58.0,33.2,30.19,NW,313,1.0,2.0,39,0.00,,,0.00,Wunderground v.1.15,2013-04-25 17:01:00,
2013-04-25 13:02:00,57.8,31.7,30.18,NW,312,1.0,2.0,37,0.00,,,0.00,Wunderground v.1.15,2013-04-25 17:02:00,
2013-04-25 13:03:00,58.0,31.8,30.18,NNW,339,1.0,2.0,37,0.00,,,0.00,Wunderground v.1.15,2013-04-25 17:03:00,
2013-04-25 13:07:00,57.5,31.4,30.18,NW,316,1.0,2.0,37,0.00,,,0.00,Wunderground v.1.15,2013-04-25 17:07:00,
2013-04-25 13:08:00,57.5,32.1,30.18,NW,316,1.0,2.0,38,0.00,,,0.00,Wunderground v.1.15,2013-04-25 17:08:00,
2013-04-25 13:09:00,57.5,33.3,30.18,NW,306,1.0,2.0,40,0.00,,,0.00,Wunderground v.1.15,2013-04-25 17:09:00,
2013-04-25 13:10:00,57.6,32.8,30.18,NW,308,1.0,1.0,39,0.00,,,0.00,Wunderground v.1.15,2013-04-25 17:10:00,
2013-04-25 13:13:00,58.0,32.5,30.18,WSW,248,1.0,1.0,38,0.00,,,0.00,Wunderground v.1.15,2013-04-25 17:13:00,
2013-04-25 13:15:00,58.4,30.8,30.18,SSE,148,1.0,9.0,35,0.00,,,0.00,Wunderground v.1.15,2013-04-25 17:15:00,
2013-04-25 13:16:00,58.6,32.4,30.18,SE,126,1.0,9.0,37,0.00,,,0.00,Wunderground v.1.15,2013-04-25 17:16:00,
2013-04-25 13:21:00,58.6,32.4,30.19,SE,134,2.0,6.0,37,0.00,,,0.00,Wunderground v.1.15,2013-04-25 17:21:00,
2013-04-25 13:22:00,58.7,33.1,30.19,ESE,104,2.0,6.0,38,0.00,,,0.00,Wunderground v.1.15,2013-04-25 17:22:00,
2013-04-25 13:23:00,58.7,31.8,30.19,SE,128,2.0,6.0,36,0.00,,,0.00,Wunderground v.1.15,2013-04-25 17:23:00,
2013-04-25 13:25:00,58.7,31.1,30.19,SE,130,3.0,6.0,35,0.00,,,0.00,Wunderground v.1.15,2013-04-25 17:25:00,
2013-04-25 13:27:00,58.9,35.2,30.19,ENE,74,2.0,6.0,41,0.00,,,0.00,Wunderground v.1.15,2013-04-25 17:27:00,
2013-04-25 13:28:00,59.0,35.3,30.19,North,355,2.0,6.0,41,0.00,,,0.00,Wunderground v.1.15,2013-04-25 17:28:00,
2013-04-25 13:30:00,59.2,32.9,30.19,East,90,2.0,2.0,37,0.00,,,0.00,Wunderground v.1.15,2013-04-25 17:30:00,
2013-04-25 13:33:00,59.5,31.1,30.18,North,360,2.0,2.0,34,0.00,,,0.00,Wunderground v.1.15,2013-04-25 17:33:00,
2013-04-25 13:46:00,61.2,36.0,30.17,WSW,245,2.0,2.0,39,0.00,,,0.00,Wunderground v.1.15,2013-04-25 17:46:00,
2013-04-25 13:47:00,61.0,35.8,30.17,SE,130,2.0,7.0,39,0.00,,,0.00,Wunderground v.1.15,2013-04-25 17:47:00,
2013-04-25 13:50:00,60.5,30.5,30.17,South,181,4.0,7.0,32,0.00,,,0.00,Wunderground v.1.15,2013-04-25 17:50:00,
2013-04-25 13:52:00,60.1,27.7,30.17,South,191,4.0,7.0,29,0.00,,,0.00,Wunderground v.1.15,2013-04-25 17:52:00,
2013-04-25 13:53:00,59.6,26.4,30.17,SW,236,4.0,7.0,28,0.00,,,0.00,Wunderground v.1.15,2013-04-25 17:53:00,
2013-04-25 13:54:00,59.6,28.1,30.17,West,261,3.0,7.0,30,0.00,,,0.00,Wunderground v.1.15,2013-04-25 17:54:00,
2013-04-25 13:58:00,59.6,28.1,30.17,ESE,121,3.0,7.0,30,0.00,,,0.00,Wunderground v.1.15,2013-04-25 17:58:00,
2013-04-25 13:59:00,59.8,29.1,30.17,East,79,2.0,7.0,31,0.00,,,0.00,Wunderground v.1.15,2013-04-25 17:59:00,
2013-04-25 14:00:00,59.9,27.5,30.17,SE,135,2.0,5.0,29,0.00,,,0.00,Wunderground v.1.15,2013-04-25 18:00:00,
2013-04-25 14:01:00,59.9,27.5,30.17,East,98,2.0,5.0,29,0.00,,,0.00,Wunderground v.1.15,2013-04-25 18:01:00,
2013-04-25 14:04:00,60.4,24.4,30.17,SE,145,2.0,5.0,25,0.00,,,0.00,Wunderground v.1.15,2013-04-25 18:04:00,
2013-04-25 14:05:00,60.5,24.5,30.17,SE,142,2.0,5.0,25,0.00,,,0.00,Wunderground v.1.15,2013-04-25 18:05:00,
2013-04-25 14:06:00,60.7,25.6,30.17,SSE,153,2.0,5.0,26,0.00,,,0.00,Wunderground v.1.15,2013-04-25 18:06:00,
2013-04-25 14:07:00,60.9,27.5,30.17,SSE,155,2.0,7.0,28,0.00,,,0.00,Wunderground v.1.15,2013-04-25 18:07:00,
2013-04-25 14:10:00,60.9,25.7,30.17,SE,134,3.0,3.0,26,0.00,,,0.00,Wunderground v.1.15,2013-04-25 18:10:00,
2013-04-25 14:12:00,61.0,26.7,30.17,SE,132,3.0,3.0,27,0.00,,,0.00,Wunderground v.1.15,2013-04-25 18:12:00,
2013-04-25 14:16:00,61.0,26.7,30.17,SSW,198,3.0,5.0,27,0.00,,,0.00,Wunderground v.1.15,2013-04-25 18:16:00,
2013-04-25 14:18:00,60.9,24.8,30.17,SSW,202,2.0,5.0,25,0.00,,,0.00,Wunderground v.1.15,2013-04-25 18:18:00,
2013-04-25 14:19:00,60.9,23.8,30.17,SSW,202,2.0,5.0,24,0.00,,,0.00,Wunderground v.1.15,2013-04-25 18:19:00,
2013-04-25 14:21:00,60.9,24.8,30.17,SSE,147,1.0,4.0,25,0.00,,,0.00,Wunderground v.1.15,2013-04-25 18:21:00,
2013-04-25 14:24:00,61.0,23.9,30.17,SE,141,1.0,5.0,24,0.00,,,0.00,Wunderground v.1.15,2013-04-25 18:24:00,
2013-04-25 14:25:00,61.2,26.0,30.17,South,188,1.0,5.0,26,0.00,,,0.00,Wunderground v.1.15,2013-04-25 18:25:00,
2013-04-25 14:27:00,61.2,26.9,30.17,South,187,2.0,8.0,27,0.00,,,0.00,Wunderground v.1.15,2013-04-25 18:27:00,
2013-04-25 14:29:00,61.2,26.0,30.17,SE,128,2.0,8.0,26,0.00,,,0.00,Wunderground v.1.15,2013-04-25 18:29:00,
2013-04-25 14:31:00,61.3,27.9,30.17,SE,139,3.0,7.0,28,0.00,,,0.00,Wunderground v.1.15,2013-04-25 18:31:00,
2013-04-25 14:34:00,61.8,33.1,30.16,SE,137,3.0,7.0,34,0.00,,,0.00,Wunderground v.1.15,2013-04-25 18:34:00,
2013-04-25 14:35:00,61.5,24.3,30.16,South,191,3.0,7.0,24,0.00,,,0.00,Wunderground v.1.15,2013-04-25 18:35:00,
2013-04-25 14:37:00,61.3,26.1,30.16,South,186,3.0,7.0,26,0.00,,,0.00,Wunderground v.1.15,2013-04-25 18:37:00,
2013-04-25 14:38:00,61.5,28.9,30.16,SE,132,3.0,7.0,29,0.00,,,0.00,Wunderground v.1.15,2013-04-25 18:38:00,
2013-04-25 14:39:00,61.6,29.0,30.16,SE,138,3.0,7.0,29,0.00,,,0.00,Wunderground v.1.15,2013-04-25 18:39:00,
2013-04-25 14:41:00,61.8,29.2,30.16,SE,139,2.0,3.0,29,0.00,,,0.00,Wunderground v.1.15,2013-04-25 18:41:00,
2013-04-25 14:42:00,62.1,25.8,30.16,SE,138,2.0,6.0,25,0.00,,,0.00,Wunderground v.1.15,2013-04-25 18:42:00,
2013-04-25 14:43:00,62.1,25.8,30.16,SE,134,2.0,6.0,25,0.00,,,0.00,Wunderground v.1.15,2013-04-25 18:43:00,
2013-04-25 14:44:00,62.3,22.9,30.16,SSE,152,3.0,6.0,22,0.00,,,0.00,Wunderground v.1.15,2013-04-25 18:44:00,
2013-04-25 14:49:00,62.4,26.1,30.15,SE,140,4.0,6.0,25,0.00,,,0.00,Wunderground v.1.15,2013-04-25 18:49:00,
2013-04-25 14:50:00,62.6,26.2,30.15,SE,140,3.0,3.0,25,0.00,,,0.00,Wunderground v.1.15,2013-04-25 18:50:00,
2013-04-25 14:51:00,62.7,26.3,30.15,SE,139,3.0,3.0,25,0.00,,,0.00,Wunderground v.1.15,2013-04-25 18:51:00,
2013-04-25 14:53:00,62.9,24.5,30.15,ESE,105,3.0,4.0,23,0.00,,,0.00,Wunderground v.1.15,2013-04-25 18:53:00,
2013-04-25 14:55:00,63.2,28.6,30.15,SSE,166,2.0,5.0,27,0.00,,,0.00,Wunderground v.1.15,2013-04-25 18:55:00,
2013-04-25 14:56:00,63.1,28.5,30.15,SSW,213,2.0,5.0,27,0.00,,,0.00,Wunderground v.1.15,2013-04-25 18:56:00,
2013-04-25 15:01:00,63.1,25.7,30.15,SSW,198,3.0,8.0,24,0.00,,,0.00,Wunderground v.1.15,2013-04-25 19:01:00,
2013-04-25 15:02:00,62.9,26.5,30.14,South,188,3.0,8.0,25,0.00,,,0.00,Wunderground v.1.15,2013-04-25 19:02:00,
2013-04-25 15:03:00,62.9,26.5,30.14,SW,225,3.0,8.0,25,0.00,,,0.00,Wunderground v.1.15,2013-04-25 19:03:00,
2013-04-25 15:07:00,62.6,27.2,30.14,South,180,4.0,8.0,26,0.00,,,0.00,Wunderground v.1.15,2013-04-25 19:07:00,
2013-04-25 15:09:00,62.6,25.3,30.14,SSW,198,4.0,8.0,24,0.00,,,0.00,Wunderground v.1.15,2013-04-25 19:09:00,
2013-04-25 15:10:00,62.6,26.2,30.14,SSE,155,4.0,4.0,25,0.00,,,0.00,Wunderground v.1.15,2013-04-25 19:10:00,
2013-04-25 15:13:00,62.9,28.4,30.14,SW,225,3.0,5.0,27,0.00,,,0.00,Wunderground v.1.15,2013-04-25 19:13:00,
2013-04-25 15:15:00,63.1,24.7,30.14,South,185,4.0,22.0,23,0.00,,,0.00,Wunderground v.1.15,2013-04-25 19:15:00,
2013-04-25 15:18:00,63.2,27.7,30.15,South,191,4.0,22.0,26,0.00,,,0.00,Wunderground v.1.15,2013-04-25 19:18:00,
2013-04-25 15:21:00,63.4,29.7,30.15,South,171,4.0,5.0,28,0.00,,,0.00,Wunderground v.1.15,2013-04-25 19:21:00,
2013-04-25 15:22:00,63.5,28.0,30.15,SE,132,5.0,5.0,26,0.00,,,0.00,Wunderground v.1.15,2013-04-25 19:22:00,
2013-04-25 15:23:00,63.5,28.0,30.15,South,169,5.0,5.0,26,0.00,,,0.00,Wunderground v.1.15,2013-04-25 19:23:00,
2013-04-25 15:26:00,64.0,31.1,30.15,SSW,204,3.0,5.0,29,0.00,,,0.00,Wunderground v.1.15,2013-04-25 19:26:00,
2013-04-25 15:27:00,64.0,28.4,30.15,East,98,3.0,5.0,26,0.00,,,0.00,Wunderground v.1.15,2013-04-25 19:27:00,
2013-04-25 15:30:00,64.0,24.4,30.15,SSE,148,4.0,5.0,22,0.00,,,0.00,Wunderground v.1.15,2013-04-25 19:30:00,
2013-04-25 15:31:00,64.0,24.4,30.14,SSE,165,4.0,5.0,22,0.00,,,0.00,Wunderground v.1.15,2013-04-25 19:31:00,
2013-04-25 15:33:00,64.0,24.4,30.14,South,169,4.0,6.0,22,0.00,,,0.00,Wunderground v.1.15,2013-04-25 19:33:00,
2013-04-25 15:36:00,64.2,24.5,30.14,South,188,4.0,6.0,22,0.00,,,0.00,Wunderground v.1.15,2013-04-25 19:36:00,
2013-04-25 15:37:00,64.2,23.4,30.14,SW,217,4.0,6.0,21,0.00,,,0.00,Wunderground v.1.15,2013-04-25 19:37:00,
2013-04-25 15:38:00,64.2,23.4,30.14,South,190,4.0,6.0,21,0.00,,,0.00,Wunderground v.1.15,2013-04-25 19:38:00,
2013-04-25 15:42:00,64.3,24.6,30.14,ESE,115,4.0,8.0,22,0.00,,,0.00,Wunderground v.1.15,2013-04-25 19:42:00,
2013-04-25 15:43:00,64.3,22.3,30.14,SE,128,4.0,13.0,20,0.00,,,0.00,Wunderground v.1.15,2013-04-25 19:43:00,
2013-04-25 15:44:00,64.3,22.3,30.14,SE,126,5.0,13.0,20,0.00,,,0.00,Wunderground v.1.15,2013-04-25 19:44:00,
2013-04-25 15:46:00,64.5,25.8,30.13,SE,124,5.0,13.0,23,0.00,,,0.00,Wunderground v.1.15,2013-04-25 19:46:00,
2013-04-25 15:48:00,64.3,19.8,30.13,ESE,119,5.0,13.0,18,0.00,,,0.00,Wunderground v.1.15,2013-04-25 19:48:00,
2013-04-25 15:51:00,64.0,19.6,30.13,ESE,117,5.0,6.0,18,0.00,,,0.00,Wunderground v.1.15,2013-04-25 19:51:00,
2013-04-25 15:52:00,64.0,20.9,30.13,ESE,123,5.0,6.0,19,0.00,,,0.00,Wunderground v.1.15,2013-04-25 19:52:00,
2013-04-25 15:53:00,64.0,23.2,30.13,SSE,163,5.0,6.0,21,0.00,,,0.00,Wunderground v.1.15,2013-04-25 19:53:00,
2013-04-25 15:58:00,64.2,22.2,30.13,SSW,209,5.0,7.0,20,0.00,,,0.00,Wunderground v.1.15,2013-04-25 19:58:00,
2013-04-25 15:59:00,64.2,26.6,30.13,SSE,161,4.0,7.0,24,0.00,,,0.00,Wunderground v.1.15,2013-04-25 19:59:00,
2013-04-25 16:00:00,64.2,26.6,30.13,South,180,4.0,5.0,24,0.00,,,0.00,Wunderground v.1.15,2013-04-25 20:00:00,
2013-04-25 16:04:00,64.2,21.0,30.13,South,173,4.0,8.0,19,0.00,,,0.00,Wunderground v.1.15,2013-04-25 20:04:00,
2013-04-25 16:05:00,64.3,21.1,30.13,East,89,4.0,8.0,19,0.00,,,0.00,Wunderground v.1.15,2013-04-25 20:05:00,
2013-04-25 16:08:00,64.3,25.7,30.13,SSW,209,5.0,9.0,23,0.00,,,0.00,Wunderground v.1.15,2013-04-25 20:08:00,
2013-04-25 16:12:00,64.5,23.7,30.13,South,183,5.0,5.0,21,0.00,,,0.00,Wunderground v.1.15,2013-04-25 20:12:00,
2013-04-25 16:14:00,64.7,23.8,30.13,SE,127,5.0,5.0,21,0.00,,,0.00,Wunderground v.1.15,2013-04-25 20:14:00,
2013-04-25 16:16:00,65.0,25.2,30.13,WSW,247,4.0,5.0,22,0.00,,,0.00,Wunderground v.1.15,2013-04-25 20:16:00,
2013-04-25 16:19:00,65.0,21.7,30.12,South,188,4.0,8.0,19,0.00,,,0.00,Wunderground v.1.15,2013-04-25 20:19:00,
2013-04-25 16:21:00,64.7,26.0,30.12,SSE,163,4.0,6.0,23,0.00,,,0.00,Wunderground v.1.15,2013-04-25 20:21:00,
2013-04-25 16:23:00,64.3,23.5,30.12,South,191,5.0,6.0,21,0.00,,,0.00,Wunderground v.1.15,2013-04-25 20:23:00,
2013-04-25 16:24:00,64.3,24.6,30.12,SSE,159,5.0,6.0,22,0.00,,,0.00,Wunderground v.1.15,2013-04-25 20:24:00,
2013-04-25 16:25:00,64.3,24.6,30.12,SSE,148,5.0,6.0,22,0.00,,,0.00,Wunderground v.1.15,2013-04-25 20:25:00,
2013-04-25 16:26:00,64.5,23.7,30.12,SE,125,5.0,6.0,21,0.00,,,0.00,Wunderground v.1.15,2013-04-25 20:26:00,
2013-04-25 16:27:00,64.5,22.5,30.12,ESE,123,5.0,9.0,20,0.00,,,0.00,Wunderground v.1.15,2013-04-25 20:27:00,
2013-04-25 16:29:00,64.5,25.8,30.12,South,178,5.0,9.0,23,0.00,,,0.00,Wunderground v.1.15,2013-04-25 20:29:00,
2013-04-25 16:30:00,64.7,24.9,30.12,SSE,148,4.0,5.0,22,0.00,,,0.00,Wunderground v.1.15,2013-04-25 20:30:00,
2013-04-25 16:31:00,64.7,21.4,30.12,SSE,160,4.0,5.0,19,0.00,,,0.00,Wunderground v.1.15,2013-04-25 20:31:00,
2013-04-25 16:32:00,64.8,21.5,30.12,NE,55,4.0,5.0,19,0.00,,,0.00,Wunderground v.1.15,2013-04-25 20:32:00,
2013-04-25 16:37:00,64.8,22.7,30.12,South,177,4.0,8.0,20,0.00,,,0.00,Wunderground v.1.15,2013-04-25 20:37:00,
2013-04-25 16:38:00,65.0,27.3,30.12,South,189,4.0,8.0,24,0.00,,,0.00,Wunderground v.1.15,2013-04-25 20:38:00,
2013-04-25 16:39:00,65.0,25.2,30.12,SSW,197,4.0,8.0,22,0.00,,,0.00,Wunderground v.1.15,2013-04-25 20:39:00,
2013-04-25 16:40:00,65.2,26.4,30.12,SE,130,4.0,7.0,23,0.00,,,0.00,Wunderground v.1.15,2013-04-25 20:40:00,
2013-04-25 16:46:00,65.2,24.2,30.12,SW,217,4.0,9.0,21,0.00,,,0.00,Wunderground v.1.15,2013-04-25 20:46:00,
2013-04-25 16:47:00,65.0,21.7,30.11,South,176,4.0,9.0,19,0.00,,,0.00,Wunderground v.1.15,2013-04-25 20:47:00,
2013-04-25 16:52:00,64.7,23.8,30.11,SSE,159,5.0,6.0,21,0.00,,,0.00,Wunderground v.1.15,2013-04-25 20:52:00,
2013-04-25 16:53:00,64.5,22.5,30.11,ESE,121,6.0,6.0,20,0.00,,,0.00,Wunderground v.1.15,2013-04-25 20:53:00,
2013-04-25 16:54:00,64.5,23.7,30.11,South,188,6.0,6.0,21,0.00,,,0.00,Wunderground v.1.15,2013-04-25 20:54:00,
2013-04-25 17:00:00,65.2,25.4,30.11,West,260,3.0,3.0,22,0.00,,,0.00,Wunderground v.1.15,2013-04-25 21:00:00,
2013-04-25 17:01:00,65.3,25.4,30.11,WSW,256,3.0,3.0,22,0.00,,,0.00,Wunderground v.1.15,2013-04-25 21:01:00,
2013-04-25 17:02:00,65.5,25.6,30.11,SSE,150,3.0,3.0,22,0.00,,,0.00,Wunderground v.1.15,2013-04-25 21:02:00,
2013-04-25 17:04:00,65.6,26.8,30.11,SSE,161,2.0,7.0,23,0.00,,,0.00,Wunderground v.1.15,2013-04-25 21:04:00,
2013-04-25 17:05:00,65.5,25.6,30.11,SSW,198,3.0,7.0,22,0.00,,,0.00,Wunderground v.1.15,2013-04-25 21:05:00,
2013-04-25 17:08:00,65.2,26.4,30.11,SE,146,4.0,8.0,23,0.00,,,0.00,Wunderground v.1.15,2013-04-25 21:08:00,
2013-04-25 17:09:00,65.2,26.4,30.11,SE,139,4.0,8.0,23,0.00,,,0.00,Wunderground v.1.15,2013-04-25 21:09:00,
2013-04-25 17:13:00,65.2,27.5,30.11,SSE,153,5.0,8.0,24,0.00,,,0.00,Wunderground v.1.15,2013-04-25 21:13:00,
2013-04-25 17:14:00,65.2,28.5,30.11,ESE,122,5.0,8.0,25,0.00,,,0.00,Wunderground v.1.15,2013-04-25 21:14:00,
2013-04-25 17:15:00,65.2,27.5,30.11,South,169,5.0,8.0,24,0.00,,,0.00,Wunderground v.1.15,2013-04-25 21:15:00,
2013-04-25 17:19:00,65.3,29.5,30.11,SSE,148,4.0,8.0,26,0.00,,,0.00,Wunderground v.1.15,2013-04-25 21:19:00,
2013-04-25 17:20:00,65.3,28.5,30.11,SSW,201,4.0,4.0,25,0.00,,,0.00,Wunderground v.1.15,2013-04-25 21:20:00,
2013-04-25 17:21:00,65.3,29.5,30.11,SE,130,4.0,4.0,26,0.00,,,0.00,Wunderground v.1.15,2013-04-25 21:21:00,
2013-04-25 17:22:00,65.3,29.5,30.11,SW,229,4.0,4.0,26,0.00,,,0.00,Wunderground v.1.15,2013-04-25 21:22:00,
2013-04-25 17:24:00,65.5,29.7,30.11,SE,140,4.0,4.0,26,0.00,,,0.00,Wunderground v.1.15,2013-04-25 21:24:00,
2013-04-25 17:26:00,65.5,25.6,30.11,South,178,4.0,6.0,22,0.00,,,0.00,Wunderground v.1.15,2013-04-25 21:26:00,
2013-04-25 17:28:00,65.3,28.5,30.11,South,176,4.0,6.0,25,0.00,,,0.00,Wunderground v.1.15,2013-04-25 21:28:00,
2013-04-25 17:29:00,65.3,28.5,30.11,SW,228,4.0,6.0,25,0.00,,,0.00,Wunderground v.1.15,2013-04-25 21:29:00,
2013-04-25 17:31:00,65.2,25.4,30.12,South,170,4.0,5.0,22,0.00,,,0.00,Wunderground v.1.15,2013-04-25 21:31:00,
2013-04-25 17:32:00,65.2,26.4,30.12,South,170,4.0,5.0,23,0.00,,,0.00,Wunderground v.1.15,2013-04-25 21:32:00,
2013-04-25 17:33:00,65.2,27.5,30.12,SE,138,4.0,5.0,24,0.00,,,0.00,Wunderground v.1.15,2013-04-25 21:33:00,
2013-04-25 17:35:00,65.3,26.5,30.12,SSE,150,4.0,5.0,23,0.00,,,0.00,Wunderground v.1.15,2013-04-25 21:35:00,
2013-04-25 17:36:00,65.3,27.5,30.12,SE,136,4.0,6.0,24,0.00,,,0.00,Wunderground v.1.15,2013-04-25 21:36:00,
2013-04-25 17:40:00,65.0,27.3,30.12,SE,131,5.0,5.0,24,0.00,,,0.00,Wunderground v.1.15,2013-04-25 21:40:00,
2013-04-25 17:41:00,65.0,26.3,30.12,South,190,5.0,7.0,23,0.00,,,0.00,Wunderground v.1.15,2013-04-25 21:41:00,
2013-04-25 17:44:00,65.3,26.5,30.12,SSE,162,4.0,7.0,23,0.00,,,0.00,Wunderground v.1.15,2013-04-25 21:44:00,
2013-04-25 17:45:00,65.3,26.5,30.12,NE,36,4.0,7.0,23,0.00,,,0.00,Wunderground v.1.15,2013-04-25 21:45:00,
2013-04-25 17:48:00,65.6,27.8,30.11,SW,222,3.0,7.0,24,0.00,,,0.00,Wunderground v.1.15,2013-04-25 21:48:00,
2013-04-25 17:50:00,65.3,24.3,30.11,South,178,3.0,5.0,21,0.00,,,0.00,Wunderground v.1.15,2013-04-25 21:50:00,
2013-04-25 17:51:00,65.3,24.3,30.11,SE,145,3.0,5.0,21,0.00,,,0.00,Wunderground v.1.15,2013-04-25 21:51:00,
2013-04-25 17:55:00,65.0,25.2,30.11,ESE,119,4.0,7.0,22,0.00,,,0.00,Wunderground v.1.15,2013-04-25 21:55:00,
2013-04-25 17:56:00,65.0,24.1,30.11,SE,140,5.0,7.0,21,0.00,,,0.00,Wunderground v.1.15,2013-04-25 21:56:00,
2013-04-25 17:57:00,65.0,24.1,30.11,SE,136,5.0,7.0,21,0.00,,,0.00,Wunderground v.1.15,2013-04-25 21:57:00,
2013-04-25 17:59:00,65.0,25.2,30.11,SE,134,4.0,7.0,22,0.00,,,0.00,Wunderground v.1.15,2013-04-25 21:59:00,
2013-04-25 18:00:00,65.2,26.4,30.11,ESE,120,4.0,4.0,23,0.00,,,0.00,Wunderground v.1.15,2013-04-25 22:00:00,
2013-04-25 18:01:00,65.2,26.4,30.12,East,86,4.0,4.0,23,0.00,,,0.00,Wunderground v.1.15,2013-04-25 22:01:00,
2013-04-25 18:04:00,65.0,22.9,30.12,SE,132,4.0,8.0,20,0.00,,,0.00,Wunderground v.1.15,2013-04-25 22:04:00,
2013-04-25 18:08:00,65.0,25.2,30.12,South,170,4.0,8.0,22,0.00,,,0.00,Wunderground v.1.15,2013-04-25 22:08:00,
2013-04-25 18:09:00,65.0,22.9,30.12,South,169,4.0,8.0,20,0.00,,,0.00,Wunderground v.1.15,2013-04-25 22:09:00,
2013-04-25 18:10:00,65.0,25.2,30.12,SE,133,4.0,5.0,22,0.00,,,0.00,Wunderground v.1.15,2013-04-25 22:10:00,
2013-04-25 18:12:00,65.2,24.2,30.12,SE,131,4.0,5.0,21,0.00,,,0.00,Wunderground v.1.15,2013-04-25 22:12:00,
2013-04-25 18:13:00,65.2,25.4,30.12,ESE,123,4.0,7.0,22,0.00,,,0.00,Wunderground v.1.15,2013-04-25 22:13:00,
2013-04-25 18:14:00,65.2,25.4,30.12,SSE,161,4.0,7.0,22,0.00,,,0.00,Wunderground v.1.15,2013-04-25 22:14:00,
2013-04-25 18:15:00,65.0,24.1,30.12,SE,144,4.0,7.0,21,0.00,,,0.00,Wunderground v.1.15,2013-04-25 22:15:00,
2013-04-25 18:18:00,64.8,23.9,30.12,SE,144,4.0,7.0,21,0.00,,,0.00,Wunderground v.1.15,2013-04-25 22:18:00,
2013-04-25 18:19:00,64.8,22.7,30.12,SE,141,4.0,7.0,20,0.00,,,0.00,Wunderground v.1.15,2013-04-25 22:19:00,
2013-04-25 18:20:00,64.8,23.9,30.12,SSE,157,4.0,4.0,21,0.00,,,0.00,Wunderground v.1.15,2013-04-25 22:20:00,
2013-04-25 18:21:00,64.8,23.9,30.12,SE,124,4.0,4.0,21,0.00,,,0.00,Wunderground v.1.15,2013-04-25 22:21:00,
2013-04-25 18:24:00,64.8,23.9,30.12,SSE,149,4.0,4.0,21,0.00,,,0.00,Wunderground v.1.15,2013-04-25 22:24:00,
2013-04-25 18:26:00,64.8,23.9,30.12,ESE,115,4.0,6.0,21,0.00,,,0.00,Wunderground v.1.15,2013-04-25 22:26:00,
2013-04-25 18:30:00,64.7,26.0,30.12,SE,126,4.0,4.0,23,0.00,,,0.00,Wunderground v.1.15,2013-04-25 22:30:00,
2013-04-25 18:31:00,64.7,26.0,30.12,SSE,153,4.0,4.0,23,0.00,,,0.00,Wunderground v.1.15,2013-04-25 22:31:00,
2013-04-25 18:33:00,64.5,23.7,30.12,SSE,153,4.0,5.0,21,0.00,,,0.00,Wunderground v.1.15,2013-04-25 22:33:00,
2013-04-25 18:35:00,64.5,24.8,30.12,SE,128,4.0,6.0,22,0.00,,,0.00,Wunderground v.1.15,2013-04-25 22:35:00,
2013-04-25 18:37:00,64.5,24.8,30.12,SE,128,4.0,6.0,22,0.00,,,0.00,Wunderground v.1.15,2013-04-25 22:37:00,
2013-04-25 18:38:00,64.7,27.0,30.12,SE,139,4.0,7.0,24,0.00,,,0.00,Wunderground v.1.15,2013-04-25 22:38:00,
2013-04-25 18:39:00,64.5,23.7,30.12,SE,142,4.0,7.0,21,0.00,,,0.00,Wunderground v.1.15,2013-04-25 22:39:00,
2013-04-25 18:41:00,64.5,23.7,30.12,SE,134,4.0,4.0,21,0.00,,,0.00,Wunderground v.1.15,2013-04-25 22:41:00,
2013-04-25 18:43:00,64.5,24.8,30.12,ESE,121,4.0,4.0,22,0.00,,,0.00,Wunderground v.1.15,2013-04-25 22:43:00,
2013-04-25 18:44:00,64.5,24.8,30.12,SE,126,4.0,4.0,22,0.00,,,0.00,Wunderground v.1.15,2013-04-25 22:44:00,
2013-04-25 18:45:00,64.5,23.7,30.12,ESE,117,4.0,4.0,21,0.00,,,0.00,Wunderground v.1.15,2013-04-25 22:45:00,
2013-04-25 18:50:00,64.3,23.5,30.12,ESE,122,3.0,3.0,21,0.00,,,0.00,Wunderground v.1.15,2013-04-25 22:50:00,
2013-04-25 18:51:00,64.3,23.5,30.12,SSE,156,3.0,4.0,21,0.00,,,0.00,Wunderground v.1.15,2013-04-25 22:51:00,
2013-04-25 18:53:00,64.3,24.6,30.12,SE,134,3.0,6.0,22,0.00,,,0.00,Wunderground v.1.15,2013-04-25 22:53:00,
2013-04-25 18:55:00,64.3,23.5,30.12,ESE,121,3.0,6.0,21,0.00,,,0.00,Wunderground v.1.15,2013-04-25 22:55:00,
2013-04-25 18:57:00,64.3,23.5,30.12,SE,132,3.0,6.0,21,0.00,,,0.00,Wunderground v.1.15,2013-04-25 22:57:00,
2013-04-25 18:58:00,64.3,23.5,30.12,SE,141,3.0,6.0,21,0.00,,,0.00,Wunderground v.1.15,2013-04-25 22:58:00,
2013-04-25 19:03:00,64.2,24.5,30.12,SE,129,3.0,3.0,22,0.00,,,0.00,Wunderground v.1.15,2013-04-25 23:03:00,
2013-04-25 19:04:00,64.2,24.5,30.12,South,182,3.0,4.0,22,0.00,,,0.00,Wunderground v.1.15,2013-04-25 23:04:00,
2013-04-25 19:05:00,64.2,23.4,30.12,SSE,159,3.0,4.0,21,0.00,,,0.00,Wunderground v.1.15,2013-04-25 23:05:00,
2013-04-25 19:06:00,64.2,23.4,30.12,SSE,158,3.0,4.0,21,0.00,,,0.00,Wunderground v.1.15,2013-04-25 23:06:00,
2013-04-25 19:10:00,64.3,22.3,30.12,South,169,2.0,5.0,20,0.00,,,0.00,Wunderground v.1.15,2013-04-25 23:10:00,
2013-04-25 19:11:00,64.3,22.3,30.12,South,179,2.0,5.0,20,0.00,,,0.00,Wunderground v.1.15,2013-04-25 23:11:00,
2013-04-25 19:13:00,64.3,22.3,30.12,South,171,3.0,5.0,20,0.00,,,0.00,Wunderground v.1.15,2013-04-25 23:13:00,
2013-04-25 19:16:00,64.2,23.4,30.12,South,181,2.0,5.0,21,0.00,,,0.00,Wunderground v.1.15,2013-04-25 23:16:00,
2013-04-25 19:17:00,64.2,23.4,30.12,South,181,2.0,5.0,21,0.00,,,0.00,Wunderground v.1.15,2013-04-25 23:17:00,
2013-04-25 19:19:00,64.2,23.4,30.12,South,181,2.0,5.0,21,0.00,,,0.00,Wunderground v.1.15,2013-04-25 23:19:00,
2013-04-25 19:23:00,64.2,23.4,30.12,SE,140,1.0,2.0,21,0.00,,,0.00,Wunderground v.1.15,2013-04-25 23:23:00,
2013-04-25 19:24:00,64.2,23.4,30.12,SE,140,1.0,2.0,21,0.00,,,0.00,Wunderground v.1.15,2013-04-25 23:24:00,
2013-04-25 19:26:00,64.0,23.2,30.12,WSW,247,1.0,2.0,21,0.00,,,0.00,Wunderground v.1.15,2013-04-25 23:26:00,
2013-04-25 19:27:00,64.0,23.2,30.12,South,182,1.0,2.0,21,0.00,,,0.00,Wunderground v.1.15,2013-04-25 23:27:00,
2013-04-25 19:29:00,63.9,24.3,30.12,South,182,1.0,2.0,22,0.00,,,0.00,Wunderground v.1.15,2013-04-25 23:29:00,
2013-04-25 19:31:00,63.7,23.0,30.12,South,184,1.0,1.0,21,0.00,,,0.00,Wunderground v.1.15,2013-04-25 23:31:00,
2013-04-25 19:33:00,63.4,22.7,30.12,South,182,1.0,1.0,21,0.00,,,0.00,Wunderground v.1.15,2013-04-25 23:33:00,
2013-04-25 19:36:00,63.1,21.3,30.12,South,178,2.0,5.0,20,0.00,,,0.00,Wunderground v.1.15,2013-04-25 23:36:00,
2013-04-25 19:37:00,62.9,22.3,30.12,South,178,2.0,5.0,21,0.00,,,0.00,Wunderground v.1.15,2013-04-25 23:37:00,
2013-04-25 19:39:00,62.6,23.2,30.12,South,181,2.0,5.0,22,0.00,,,0.00,Wunderground v.1.15,2013-04-25 23:39:00,
2013-04-25 19:40:00,62.4,23.0,30.12,South,179,2.0,2.0,22,0.00,,,0.00,Wunderground v.1.15,2013-04-25 23:40:00,
2013-04-25 19:42:00,62.3,21.8,30.12,South,180,2.0,4.0,21,0.00,,,0.00,Wunderground v.1.15,2013-04-25 23:42:00,
2013-04-25 19:46:00,61.8,23.6,30.12,South,180,2.0,4.0,23,0.00,,,0.00,Wunderground v.1.15,2013-04-25 23:46:00,
2013-04-25 19:47:00,61.6,23.4,30.14,South,180,1.0,4.0,23,0.00,,,0.00,Wunderground v.1.15,2013-04-25 23:47:00,
2013-04-25 19:48:00,61.5,23.3,30.14,South,180,1.0,4.0,23,0.00,,,0.00,Wunderground v.1.15,2013-04-25 23:48:00,
2013-04-25 19:52:00,61.0,23.9,30.14,South,180,1.0,1.0,24,0.00,,,0.00,Wunderground v.1.15,2013-04-25 23:52:00,
2013-04-25 19:53:00,60.9,23.8,30.14,South,180,0.0,1.0,24,0.00,,,0.00,Wunderground v.1.15,2013-04-25 23:53:00,
2013-04-25 19:54:00,60.7,23.7,30.14,South,180,0.0,1.0,24,0.00,,,0.00,Wunderground v.1.15,2013-04-25 23:54:00,
2013-04-25 19:56:00,60.4,22.4,30.14,South,180,0.0,1.0,23,0.00,,,0.00,Wunderground v.1.15,2013-04-25 23:56:00,
2013-04-25 19:57:00,60.2,23.2,30.14,South,180,0.0,3.0,24,0.00,,,0.00,Wunderground v.1.15,2013-04-25 23:57:00,
2013-04-25 20:01:00,59.8,23.9,30.14,South,180,0.0,2.0,25,0.00,,,0.00,Wunderground v.1.15,2013-04-26 00:01:00,
2013-04-25 20:03:00,59.6,23.7,30.14,South,180,0.0,2.0,25,0.00,,,0.00,Wunderground v.1.15,2013-04-26 00:03:00,
2013-04-25 20:04:00,59.5,23.6,30.14,South,180,0.0,2.0,25,0.00,,,0.00,Wunderground v.1.15,2013-04-26 00:04:00,
2013-04-25 20:05:00,59.3,24.4,30.14,South,180,0.0,2.0,26,0.00,,,0.00,Wunderground v.1.15,2013-04-26 00:05:00,
2013-04-25 20:07:00,59.2,25.2,30.14,South,180,0.0,2.0,27,0.00,,,0.00,Wunderground v.1.15,2013-04-26 00:07:00,
2013-04-25 20:09:00,59.0,25.9,30.14,South,180,0.0,2.0,28,0.00,,,0.00,Wunderground v.1.15,2013-04-26 00:09:00,
2013-04-25 20:13:00,58.4,25.4,30.14,South,180,0.0,0.0,28,0.00,,,0.00,Wunderground v.1.15,2013-04-26 00:13:00,
2013-04-25 20:15:00,58.1,26.8,30.14,South,180,0.0,0.0,30,0.00,,,0.00,Wunderground v.1.15,2013-04-26 00:15:00,
2013-04-25 20:19:00,57.2,26.0,30.15,South,180,0.0,0.0,30,0.00,,,0.00,Wunderground v.1.15,2013-04-26 00:19:00,
2013-04-25 20:20:00,56.9,26.5,30.15,South,180,0.0,0.0,31,0.00,,,0.00,Wunderground v.1.15,2013-04-26 00:20:00,
2013-04-25 20:23:00,56.5,26.2,30.15,South,180,0.0,1.0,31,0.00,,,0.00,Wunderground v.1.15,2013-04-26 00:23:00,
2013-04-25 20:24:00,56.3,24.4,30.15,South,180,0.0,2.0,29,0.00,,,0.00,Wunderground v.1.15,2013-04-26 00:24:00,
2013-04-25 20:26:00,56.3,24.4,30.15,South,180,0.0,2.0,29,0.00,,,0.00,Wunderground v.1.15,2013-04-26 00:26:00,
2013-04-25 20:29:00,56.2,23.5,30.15,South,180,1.0,2.0,28,0.00,,,0.00,Wunderground v.1.15,2013-04-26 00:29:00,
2013-04-25 20:30:00,56.0,26.5,30.15,South,180,1.0,1.0,32,0.00,,,0.00,Wunderground v.1.15,2013-04-26 00:30:00,
2013-04-25 20:31:00,56.0,26.5,30.15,South,180,1.0,1.0,32,0.00,,,0.00,Wunderground v.1.15,2013-04-26 00:31:00,
2013-04-25 20:36:00,55.6,26.2,30.15,SSW,200,0.0,1.0,32,0.00,,,0.00,Wunderground v.1.15,2013-04-26 00:36:00,
2013-04-25 20:37:00,55.4,26.0,30.15,SSW,200,0.0,1.0,32,0.00,,,0.00,Wunderground v.1.15,2013-04-26 00:37:00,
2013-04-25 20:40:00,55.4,21.0,30.15,SSW,200,1.0,1.0,26,0.00,,,0.00,Wunderground v.1.15,2013-04-26 00:40:00,
2013-04-25 20:42:00,55.4,22.8,30.15,SSW,200,1.0,1.0,28,0.00,,,0.00,Wunderground v.1.15,2013-04-26 00:42:00,
2013-04-25 20:44:00,55.4,20.1,30.15,SSW,200,1.0,3.0,25,0.00,,,0.00,Wunderground v.1.15,2013-04-26 00:44:00,
2013-04-25 20:48:00,55.7,22.2,30.17,SSW,200,1.0,3.0,27,0.00,,,0.00,Wunderground v.1.15,2013-04-26 00:48:00,
2013-04-25 20:49:00,55.9,20.5,30.17,SW,235,1.0,3.0,25,0.00,,,0.00,Wunderground v.1.15,2013-04-26 00:49:00,
2013-04-25 20:52:00,56.2,19.8,30.17,SW,235,2.0,4.0,24,0.00,,,0.00,Wunderground v.1.15,2013-04-26 00:52:00,
2013-04-25 20:54:00,56.2,20.8,30.17,SW,235,2.0,4.0,25,0.00,,,0.00,Wunderground v.1.15,2013-04-26 00:54:00,
2013-04-25 20:55:00,56.2,20.8,30.17,SW,235,1.0,4.0,25,0.00,,,0.00,Wunderground v.1.15,2013-04-26 00:55:00,
2013-04-25 20:57:00,56.2,20.8,30.17,SW,235,1.0,4.0,25,0.00,,,0.00,Wunderground v.1.15,2013-04-26 00:57:00,
2013-04-25 20:58:00,56.2,20.8,30.17,SW,235,1.0,4.0,25,0.00,,,0.00,Wunderground v.1.15,2013-04-26 00:58:00,
2013-04-25 21:00:00,56.0,20.6,30.17,SSW,206,1.0,4.0,25,0.00,,,0.00,Wunderground v.1.15,2013-04-26 01:00:00,
2013-04-25 21:01:00,56.0,20.6,30.17,SSW,207,1.0,4.0,25,0.00,,,0.00,Wunderground v.1.15,2013-04-26 01:01:00,
2013-04-25 21:02:00,55.9,19.6,30.17,SSW,207,1.0,4.0,24,0.00,,,0.00,Wunderground v.1.15,2013-04-26 01:02:00,
2013-04-25 21:06:00,55.9,19.6,30.17,WSW,251,1.0,4.0,24,0.00,,,0.00,Wunderground v.1.15,2013-04-26 01:06:00,
2013-04-25 21:08:00,55.9,19.6,30.17,SW,234,1.0,4.0,24,0.00,,,0.00,Wunderground v.1.15,2013-04-26 01:08:00,
2013-04-25 21:10:00,55.9,19.6,30.17,SW,235,2.0,2.0,24,0.00,,,0.00,Wunderground v.1.15,2013-04-26 01:10:00,
2013-04-25 21:12:00,55.9,18.6,30.17,SW,235,2.0,4.0,23,0.00,,,0.00,Wunderground v.1.15,2013-04-26 01:12:00,
2013-04-25 21:13:00,55.9,18.6,30.17,WSW,246,2.0,4.0,23,0.00,,,0.00,Wunderground v.1.15,2013-04-26 01:13:00,
2013-04-25 21:14:00,55.9,18.6,30.17,South,188,2.0,6.0,23,0.00,,,0.00,Wunderground v.1.15,2013-04-26 01:14:00,
2013-04-25 21:15:00,56.0,17.6,30.17,West,272,2.0,6.0,22,0.00,,,0.00,Wunderground v.1.15,2013-04-26 01:15:00,
2013-04-25 21:17:00,56.2,17.8,30.18,WSW,252,3.0,6.0,22,0.00,,,0.00,Wunderground v.1.15,2013-04-26 01:17:00,
2013-04-25 21:19:00,56.2,16.7,30.18,SW,230,3.0,6.0,21,0.00,,,0.00,Wunderground v.1.15,2013-04-26 01:19:00,
2013-04-25 21:21:00,56.3,16.8,30.18,SW,234,3.0,5.0,21,0.00,,,0.00,Wunderground v.1.15,2013-04-26 01:21:00,
2013-04-25 21:24:00,56.3,17.9,30.18,SW,234,3.0,5.0,22,0.00,,,0.00,Wunderground v.1.15,2013-04-26 01:24:00,
2013-04-25 21:25:00,56.3,18.9,30.18,SW,233,2.0,5.0,23,0.00,,,0.00,Wunderground v.1.15,2013-04-26 01:25:00,
2013-04-25 21:26:00,56.3,18.9,30.18,SW,228,2.0,5.0,23,0.00,,,0.00,Wunderground v.1.15,2013-04-26 01:26:00,
2013-04-25 21:27:00,56.2,16.7,30.18,WSW,240,2.0,6.0,21,0.00,,,0.00,Wunderground v.1.15,2013-04-26 01:27:00,
2013-04-25 21:28:00,56.2,17.8,30.18,SW,215,2.0,6.0,22,0.00,,,0.00,Wunderground v.1.15,2013-04-26 01:28:00,
2013-04-25 21:30:00,56.0,17.6,30.18,SW,215,2.0,2.0,22,0.00,,,0.00,Wunderground v.1.15,2013-04-26 01:30:00,
2013-04-25 21:32:00,55.9,17.6,30.20,WSW,253,2.0,2.0,22,0.00,,,0.00,Wunderground v.1.15,2013-04-26 01:32:00,
2013-04-25 21:34:00,55.9,16.5,30.20,NW,317,2.0,2.0,21,0.00,,,0.00,Wunderground v.1.15,2013-04-26 01:34:00,
2013-04-25 21:37:00,55.9,17.6,30.20,West,264,2.0,4.0,22,0.00,,,0.00,Wunderground v.1.15,2013-04-26 01:37:00,
2013-04-25 21:41:00,55.7,19.4,30.20,West,265,2.0,2.0,24,0.00,,,0.00,Wunderground v.1.15,2013-04-26 01:41:00,
2013-04-25 21:42:00,55.6,20.3,30.20,West,265,2.0,3.0,25,0.00,,,0.00,Wunderground v.1.15,2013-04-26 01:42:00,
2013-04-25 21:44:00,55.1,21.7,30.20,West,265,1.0,3.0,27,0.00,,,0.00,Wunderground v.1.15,2013-04-26 01:44:00,
2013-04-25 21:45:00,55.0,21.6,30.20,West,265,2.0,3.0,27,0.00,,,0.00,Wunderground v.1.15,2013-04-26 01:45:00,
2013-04-25 21:47:00,54.7,21.3,30.21,West,265,2.0,3.0,27,0.00,,,0.00,Wunderground v.1.15,2013-04-26 01:47:00,
2013-04-25 21:48:00,54.5,22.0,30.21,West,265,1.0,3.0,28,0.00,,,0.00,Wunderground v.1.15,2013-04-26 01:48:00,
2013-04-25 21:50:00,54.1,20.8,30.21,West,265,2.0,2.0,27,0.00,,,0.00,Wunderground v.1.15,2013-04-26 01:50:00,
2013-04-25 21:51:00,53.9,20.6,30.21,West,265,2.0,2.0,27,0.00,,,0.00,Wunderground v.1.15,2013-04-26 01:51:00,
2013-04-25 21:54:00,53.6,21.2,30.21,West,265,1.0,2.0,28,0.00,,,0.00,Wunderground v.1.15,2013-04-26 01:54:00,
2013-04-25 21:55:00,53.5,21.2,30.21,West,265,1.0,2.0,28,0.00,,,0.00,Wunderground v.1.15,2013-04-26 01:55:00,
2013-04-25 21:56:00,53.5,21.2,30.21,West,265,1.0,2.0,28,0.00,,,0.00,Wunderground v.1.15,2013-04-26 01:56:00,
2013-04-25 21:57:00,53.3,20.1,30.21,West,265,1.0,2.0,27,0.00,,,0.00,Wunderground v.1.15,2013-04-26 01:57:00,
2013-04-25 22:01:00,53.1,20.0,30.23,West,265,1.0,1.0,27,0.00,,,0.00,Wunderground v.1.15,2013-04-26 02:01:00,
2013-04-25 22:02:00,52.9,21.5,30.23,West,265,1.0,2.0,29,0.00,,,0.00,Wunderground v.1.15,2013-04-26 02:02:00,
2013-04-25 22:05:00,52.8,20.5,30.23,WSW,257,1.0,2.0,28,0.00,,,0.00,Wunderground v.1.15,2013-04-26 02:05:00,
2013-04-25 22:10:00,52.9,20.6,30.23,WSW,257,1.0,1.0,28,0.00,,,0.00,Wunderground v.1.15,2013-04-26 02:10:00,
2013-04-25 22:12:00,52.9,20.6,30.23,WSW,257,1.0,1.0,28,0.00,,,0.00,Wunderground v.1.15,2013-04-26 02:12:00,
2013-04-25 22:13:00,52.9,19.8,30.23,WSW,257,1.0,1.0,27,0.00,,,0.00,Wunderground v.1.15,2013-04-26 02:13:00,
2013-04-25 22:15:00,52.8,20.5,30.23,WSW,257,0.0,1.0,28,0.00,,,0.00,Wunderground v.1.15,2013-04-26 02:15:00,
2013-04-25 22:18:00,52.8,21.4,30.23,WSW,257,0.0,1.0,29,0.00,,,0.00,Wunderground v.1.15,2013-04-26 02:18:00,
2013-04-25 22:19:00,52.6,21.2,30.23,WSW,257,0.0,1.0,29,0.00,,,0.00,Wunderground v.1.15,2013-04-26 02:19:00,
2013-04-25 22:20:00,52.6,22.0,30.23,WSW,257,0.0,0.0,30,0.00,,,0.00,Wunderground v.1.15,2013-04-26 02:20:00,
2013-04-25 22:23:00,52.2,22.4,30.23,WSW,257,0.0,0.0,31,0.00,,,0.00,Wunderground v.1.15,2013-04-26 02:23:00,
2013-04-25 22:24:00,52.0,23.0,30.23,WSW,257,0.0,0.0,32,0.00,,,0.00,Wunderground v.1.15,2013-04-26 02:24:00,
2013-04-25 22:25:00,51.7,22.8,30.23,WSW,257,0.0,0.0,32,0.00,,,0.00,Wunderground v.1.15,2013-04-26 02:25:00,
2013-04-25 22:26:00,51.7,22.8,30.23,WSW,257,0.0,0.0,32,0.00,,,0.00,Wunderground v.1.15,2013-04-26 02:26:00,
2013-04-25 22:29:00,51.3,22.4,30.23,WSW,257,0.0,0.0,32,0.00,,,0.00,Wunderground v.1.15,2013-04-26 02:29:00,
2013-04-25 22:31:00,51.1,23.7,30.25,WSW,257,0.0,1.0,34,0.00,,,0.00,Wunderground v.1.15,2013-04-26 02:31:00,
2013-04-25 22:32:00,51.0,23.6,30.25,WSW,257,0.0,1.0,34,0.00,,,0.00,Wunderground v.1.15,2013-04-26 02:32:00,
2013-04-25 22:34:00,50.8,23.4,30.25,WSW,257,0.0,1.0,34,0.00,,,0.00,Wunderground v.1.15,2013-04-26 02:34:00,
2013-04-25 22:37:00,51.0,23.6,30.25,WNW,285,1.0,2.0,34,0.00,,,0.00,Wunderground v.1.15,2013-04-26 02:37:00,
2013-04-25 22:38:00,51.0,22.9,30.25,WNW,285,1.0,2.0,33,0.00,,,0.00,Wunderground v.1.15,2013-04-26 02:38:00,
2013-04-25 22:40:00,51.1,23.0,30.25,WNW,285,1.0,3.0,33,0.00,,,0.00,Wunderground v.1.15,2013-04-26 02:40:00,
2013-04-25 22:42:00,51.3,23.1,30.25,WNW,285,1.0,3.0,33,0.00,,,0.00,Wunderground v.1.15,2013-04-26 02:42:00,
2013-04-25 22:45:00,51.7,22.8,30.25,West,280,1.0,3.0,32,0.00,,,0.00,Wunderground v.1.15,2013-04-26 02:45:00,
2013-04-25 22:46:00,51.7,22.8,30.25,WNW,288,1.0,3.0,32,0.00,,,0.00,Wunderground v.1.15,2013-04-26 02:46:00,
2013-04-25 22:47:00,51.9,23.7,30.25,NW,307,1.0,3.0,33,0.00,,,0.00,Wunderground v.1.15,2013-04-26 02:47:00,
2013-04-25 22:51:00,52.2,23.9,30.25,NW,304,2.0,2.0,33,0.00,,,0.00,Wunderground v.1.15,2013-04-26 02:51:00,
2013-04-25 22:52:00,52.2,23.9,30.25,NW,304,2.0,2.0,33,0.00,,,0.00,Wunderground v.1.15,2013-04-26 02:52:00,
2013-04-25 22:57:00,52.3,23.3,30.25,West,267,2.0,4.0,32,0.00,,,0.00,Wunderground v.1.15,2013-04-26 02:57:00,
2013-04-25 22:58:00,52.3,24.0,30.25,West,268,2.0,4.0,33,0.00,,,0.00,Wunderground v.1.15,2013-04-26 02:58:00,
2013-04-25 22:59:00,52.3,23.3,30.25,West,268,1.0,4.0,32,0.00,,,0.00,Wunderground v.1.15,2013-04-26 02:59:00,
2013-04-25 23:00:00,52.3,23.3,30.25,West,268,1.0,1.0,32,0.00,,,0.00,Wunderground v.1.15,2013-04-26 03:00:00,
2013-04-25 23:01:00,52.3,24.0,30.25,West,268,1.0,2.0,33,0.00,,,0.00,Wunderground v.1.15,2013-04-26 03:01:00,
2013-04-25 23:05:00,52.6,25.0,30.25,WSW,254,2.0,2.0,34,0.00,,,0.00,Wunderground v.1.15,2013-04-26 03:05:00,
2013-04-25 23:06:00,52.5,24.2,30.25,WSW,254,1.0,2.0,33,0.00,,,0.00,Wunderground v.1.15,2013-04-26 03:06:00,
2013-04-25 23:07:00,52.5,24.2,30.25,WSW,254,1.0,2.0,33,0.00,,,0.00,Wunderground v.1.15,2013-04-26 03:07:00,
2013-04-25 23:08:00,52.5,24.2,30.25,WSW,254,1.0,2.0,33,0.00,,,0.00,Wunderground v.1.15,2013-04-26 03:08:00,
2013-04-25 23:09:00,52.5,23.5,30.25,NW,313,1.0,4.0,32,0.00,,,0.00,Wunderground v.1.15,2013-04-26 03:09:00,
2013-04-25 23:13:00,52.6,23.5,30.25,WNW,287,1.0,2.0,32,0.00,,,0.00,Wunderground v.1.15,2013-04-26 03:13:00,
2013-04-25 23:14:00,52.5,24.2,30.25,WNW,287,1.0,2.0,33,0.00,,,0.00,Wunderground v.1.15,2013-04-26 03:14:00,
2013-04-25 23:15:00,52.5,23.5,30.25,WNW,287,1.0,2.0,32,0.00,,,0.00,Wunderground v.1.15,2013-04-26 03:15:00,
2013-04-25 23:17:00,52.5,24.2,30.26,WNW,287,1.0,2.0,33,0.00,,,0.00,Wunderground v.1.15,2013-04-26 03:17:00,
2013-04-25 23:18:00,52.5,24.2,30.26,WNW,287,1.0,2.0,33,0.00,,,0.00,Wunderground v.1.15,2013-04-26 03:18:00,
2013-04-25 23:20:00,52.3,24.0,30.26,WNW,287,0.0,1.0,33,0.00,,,0.00,Wunderground v.1.15,2013-04-26 03:20:00,
2013-04-25 23:21:00,52.3,24.7,30.26,WNW,287,0.0,1.0,34,0.00,,,0.00,Wunderground v.1.15,2013-04-26 03:21:00,
2013-04-25 23:26:00,51.9,25.1,30.26,WNW,287,0.0,1.0,35,0.00,,,0.00,Wunderground v.1.15,2013-04-26 03:26:00,
2013-04-25 23:27:00,51.9,25.1,30.26,WNW,287,0.0,1.0,35,0.00,,,0.00,Wunderground v.1.15,2013-04-26 03:27:00,
2013-04-25 23:28:00,51.7,24.9,30.26,WNW,287,0.0,1.0,35,0.00,,,0.00,Wunderground v.1.15,2013-04-26 03:28:00,
2013-04-25 23:30:00,51.4,26.0,30.26,WNW,287,0.0,0.0,37,0.00,,,0.00,Wunderground v.1.15,2013-04-26 03:30:00,
2013-04-25 23:32:00,51.3,25.9,30.26,WNW,287,0.0,0.0,37,0.00,,,0.00,Wunderground v.1.15,2013-04-26 03:32:00,
2013-04-25 23:33:00,51.1,25.7,30.26,WNW,287,0.0,0.0,37,0.00,,,0.00,Wunderground v.1.15,2013-04-26 03:33:00,
2013-04-25 23:34:00,51.0,25.6,30.26,WNW,287,0.0,0.0,37,0.00,,,0.00,Wunderground v.1.15,2013-04-26 03:34:00,
2013-04-25 23:35:00,50.7,25.3,30.26,WNW,287,0.0,0.0,37,0.00,,,0.00,Wunderground v.1.15,2013-04-26 03:35:00,
2013-04-25 23:37:00,50.5,25.8,30.26,WNW,287,0.0,0.0,38,0.00,,,0.00,Wunderground v.1.15,2013-04-26 03:37:00,
2013-04-25 23:38:00,50.4,25.7,30.26,WNW,287,0.0,0.0,38,0.00,,,0.00,Wunderground v.1.15,2013-04-26 03:38:00,
2013-04-25 23:40:00,50.1,26.1,30.26,WNW,287,0.0,0.0,39,0.00,,,0.00,Wunderground v.1.15,2013-04-26 03:40:00,
2013-04-25 23:41:00,49.9,25.9,30.26,WNW,287,0.0,0.0,39,0.00,,,0.00,Wunderground v.1.15,2013-04-26 03:41:00,
2013-04-25 23:43:00,49.6,26.8,30.26,WNW,287,0.0,0.0,41,0.00,,,0.00,Wunderground v.1.15,2013-04-26 03:43:00,
2013-04-25 23:46:00,49.2,26.5,30.27,WNW,287,0.0,0.0,41,0.00,,,0.00,Wunderground v.1.15,2013-04-26 03:46:00,
2013-04-25 23:47:00,49.2,26.5,30.27,WNW,287,0.0,0.0,41,0.00,,,0.00,Wunderground v.1.15,2013-04-26 03:47:00,
2013-04-25 23:48:00,48.9,26.8,30.27,WNW,287,0.0,0.0,42,0.00,,,0.00,Wunderground v.1.15,2013-04-26 03:48:00,
2013-04-25 23:52:00,48.3,27.4,30.27,WNW,287,0.0,0.0,44,0.00,,,0.00,Wunderground v.1.15,2013-04-26 03:52:00,
2013-04-25 23:54:00,47.9,28.1,30.27,WNW,287,0.0,0.0,46,0.00,,,0.00,Wunderground v.1.15,2013-04-26 03:54:00,
2013-04-25 23:55:00,47.6,28.3,30.27,WNW,287,0.0,0.0,47,0.00,,,0.00,Wunderground v.1.15,2013-04-26 03:55:00,
2013-04-25 23:57:00,47.3,28.1,30.27,WNW,287,0.0,0.0,47,0.00,,,0.00,Wunderground v.1.15,2013-04-26 03:57:00,